Wetterdaten: Freitag, 25.09.2020
Datum Zeit Temp. Aussen Temp. o. S. Temp +5cm Feuchte Auss Luftdruck Regen Sonnenschein Regendauer Solar Windben Empfang
25.09.2020 00:00 15,4 C 13,9 C 13,9 C 85 % 996,9 hPa 0,0 l/m 0 min 0 min 0 W/m 12,9 km/h (3 Bft) 95,74 %
25.09.2020 00:02 15,4 C 14,4 C 13,9 C 85 % 996,9 hPa 0,0 l/m 0 min 0 min 0 W/m 9,7 km/h (2 Bft) 90,00 %
25.09.2020 00:04 15,4 C 14,4 C 13,9 C 86 % 996,9 hPa 0,0 l/m 0 min 0 min 0 W/m 9,7 km/h (2 Bft) 93,75 %
25.09.2020 00:08 15,3 C 14,4 C 13,9 C 86 % 996,8 hPa 0,0 l/m 0 min 0 min 0 W/m 12,9 km/h (3 Bft) 94,62 %
25.09.2020 00:10 15,3 C 14,4 C 13,9 C 86 % 996,8 hPa 0,0 l/m 0 min 0 min 0 W/m 6,4 km/h (2 Bft) 95,74 %
25.09.2020 00:12 15,3 C 14,4 C 13,9 C 86 % 996,8 hPa 0,0 l/m 0 min 0 min 0 W/m 3,2 km/h (1 Bft) 95,74 %
25.09.2020 00:14 15,3 C 14,4 C 13,9 C 86 % 996,8 hPa 0,0 l/m 0 min 0 min 0 W/m 0,0 km/h (0 Bft) 97,87 %
25.09.2020 00:16 15,3 C 14,4 C 13,9 C 86 % 996,7 hPa 0,0 l/m 0 min 0 min 0 W/m 9,7 km/h (2 Bft) 95,74 %
25.09.2020 00:18 15,3 C 14,4 C 13,9 C 86 % 996,7 hPa 0,0 l/m 0 min 0 min 0 W/m 12,9 km/h (3 Bft) 97,83 %
25.09.2020 00:20 15,3 C 14,4 C 13,9 C 86 % 996,6 hPa 0,0 l/m 0 min 0 min 0 W/m 6,4 km/h (2 Bft) 97,87 %
25.09.2020 00:22 15,3 C 14,4 C 13,9 C 86 % 996,6 hPa 0,0 l/m 0 min 0 min 0 W/m 19,3 km/h (3 Bft) 95,74 %
25.09.2020 00:24 15,3 C 14,4 C 13,9 C 86 % 996,5 hPa 0,0 l/m 0 min 0 min 0 W/m 12,9 km/h (3 Bft) 97,87 %
25.09.2020 00:26 15,2 C 14,4 C 13,9 C 86 % 996,6 hPa 0,0 l/m 0 min 0 min 0 W/m 12,9 km/h (3 Bft) 95,74 %
25.09.2020 00:28 15,2 C 14,4 C 13,9 C 86 % 996,6 hPa 0,0 l/m 0 min 0 min 0 W/m 9,7 km/h (2 Bft) 97,67 %
25.09.2020 00:30 15,2 C 14,4 C 13,9 C 86 % 996,6 hPa 0,0 l/m 0 min 0 min 0 W/m 16,1 km/h (3 Bft) 97,22 %
25.09.2020 00:32 15,2 C 14,4 C 13,9 C 86 % 996,6 hPa 0,0 l/m 0 min 0 min 0 W/m 16,1 km/h (3 Bft) 98,36 %
25.09.2020 00:34 15,2 C 14,4 C 13,9 C 86 % 996,5 hPa 0,0 l/m 0 min 0 min 0 W/m 12,9 km/h (3 Bft) 100,00 %
25.09.2020 00:36 15,3 C 14,4 C 13,9 C 87 % 996,4 hPa 0,0 l/m 0 min 0 min 0 W/m 0,0 km/h (0 Bft) 100,00 %
25.09.2020 00:38 15,3 C 14,4 C 13,9 C 87 % 996,3 hPa 0,0 l/m 0 min 0 min 0 W/m 0,0 km/h (0 Bft) 97,87 %
25.09.2020 00:40 15,3 C 14,4 C 13,9 C 87 % 996,3 hPa 0,0 l/m 0 min 0 min 0 W/m 0,0 km/h (0 Bft) 100,00 %
25.09.2020 00:42 15,3 C 14,4 C 13,9 C 87 % 996,3 hPa 0,0 l/m 0 min 0 min 0 W/m 3,2 km/h (1 Bft) 100,00 %
25.09.2020 00:44 15,3 C 14,4 C 13,9 C 87 % 996,4 hPa 0,0 l/m 0 min 0 min 0 W/m 0,0 km/h (0 Bft) 100,00 %
25.09.2020 00:46 15,3 C 14,4 C 13,9 C 87 % 996,4 hPa 0,0 l/m 0 min 0 min 0 W/m 0,0 km/h (0 Bft) 100,00 %
25.09.2020 00:48 15,3 C 14,4 C 13,9 C 87 % 996,4 hPa 0,0 l/m 0 min 0 min 0 W/m 6,4 km/h (2 Bft) 100,00 %
25.09.2020 00:50 15,3 C 14,4 C 13,9 C 87 % 996,4 hPa 0,0 l/m 0 min 0 min 0 W/m 3,2 km/h (1 Bft) 100,00 %
25.09.2020 00:52 15,3 C 14,4 C 13,9 C 87 % 996,4 hPa 0,0 l/m 0 min 0 min 0 W/m 0,0 km/h (0 Bft) 100,00 %
25.09.2020 00:54 15,3 C 14,4 C 13,9 C 87 % 996,4 hPa 0,0 l/m 0 min 0 min 0 W/m 12,9 km/h (3 Bft) 100,00 %
25.09.2020 00:56 15,3 C 14,4 C 13,9 C 87 % 996,4 hPa 0,0 l/m 0 min 0 min 0 W/m 0,0 km/h (0 Bft) 100,00 %
25.09.2020 00:58 15,3 C 14,4 C 13,9 C 87 % 996,3 hPa 0,0 l/m 0 min 0 min 0 W/m 9,7 km/h (2 Bft) 100,00 %
25.09.2020 01:00 15,3 C 14,4 C 13,9 C 87 % 996,3 hPa 0,0 l/m 0 min 0 min 0 W/m 6,4 km/h (2 Bft) 100,00 %
25.09.2020 01:02 15,3 C 14,4 C 13,9 C 87 % 996,2 hPa 0,0 l/m 0 min 0 min 0 W/m 12,9 km/h (3 Bft) 100,00 %
25.09.2020 01:04 15,3 C 14,4 C 13,9 C 87 % 996,2 hPa 0,0 l/m 0 min 0 min 0 W/m 0,0 km/h (0 Bft) 100,00 %
25.09.2020 01:06 15,3 C 14,4 C 13,9 C 87 % 996,2 hPa 0,0 l/m 0 min 0 min 0 W/m 12,9 km/h (3 Bft) 100,00 %
25.09.2020 01:08 15,3 C 14,4 C 13,9 C 87 % 996,3 hPa 0,0 l/m 0 min 0 min 0 W/m 6,4 km/h (2 Bft) 100,00 %
25.09.2020 01:10 15,3 C 14,4 C 13,9 C 87 % 996,3 hPa 0,0 l/m 0 min 0 min 0 W/m 6,4 km/h (2 Bft) 100,00 %
25.09.2020 01:12 15,3 C 13,9 C 13,9 C 87 % 996,3 hPa 0,0 l/m 0 min 2 min 0 W/m 9,7 km/h (2 Bft) 100,00 %
25.09.2020 01:14 15,3 C 12,8 C 13,3 C 87 % 996,6 hPa 0,4 l/m 0 min 2 min 0 W/m 57,9 km/h (7 Bft) 100,00 %
25.09.2020 01:16 15,2 C 11,7 C 12,2 C 87 % 997,0 hPa 0,2 l/m 0 min 2 min 0 W/m 32,2 km/h (5 Bft) 100,00 %
25.09.2020 01:18 15,0 C 11,1 C 11,7 C 86 % 996,9 hPa 0,2 l/m 0 min 2 min 0 W/m 16,1 km/h (3 Bft) 100,00 %
25.09.2020 01:20 14,8 C 11,1 C 11,7 C 86 % 996,8 hPa 0,0 l/m 0 min 2 min 0 W/m 3,2 km/h (1 Bft) 100,00 %
25.09.2020 01:22 14,7 C 11,1 C 11,7 C 86 % 996,9 hPa 0,0 l/m 0 min 2 min 0 W/m 6,4 km/h (2 Bft) 100,00 %
25.09.2020 01:24 14,6 C 11,1 C 11,7 C 86 % 996,9 hPa 0,2 l/m 0 min 2 min 0 W/m 3,2 km/h (1 Bft) 100,00 %
25.09.2020 01:26 14,5 C 11,1 C 11,1 C 86 % 996,9 hPa 0,0 l/m 0 min 2 min 0 W/m 3,2 km/h (1 Bft) 100,00 %
25.09.2020 01:28 14,4 C 11,1 C 11,1 C 86 % 996,9 hPa 0,0 l/m 0 min 2 min 0 W/m 9,7 km/h (2 Bft) 100,00 %
25.09.2020 01:30 14,3 C 11,1 C 11,1 C 87 % 996,9 hPa 0,0 l/m 0 min 2 min 0 W/m 19,3 km/h (3 Bft) 97,87 %
25.09.2020 01:32 14,3 C 11,1 C 11,1 C 87 % 996,8 hPa 0,0 l/m 0 min 2 min 0 W/m 12,9 km/h (3 Bft) 100,00 %
25.09.2020 01:34 14,1 C 11,1 C 11,1 C 87 % 996,8 hPa 0,0 l/m 0 min 2 min 0 W/m 16,1 km/h (3 Bft) 100,00 %
25.09.2020 01:36 14,0 C 11,1 C 11,1 C 87 % 996,7 hPa 0,0 l/m 0 min 2 min 0 W/m 22,5 km/h (4 Bft) 100,00 %
25.09.2020 01:38 13,9 C 11,1 C 11,1 C 88 % 996,8 hPa 0,0 l/m 0 min 2 min 0 W/m 22,5 km/h (4 Bft) 100,00 %
25.09.2020 01:40 13,8 C 11,1 C 11,1 C 88 % 996,8 hPa 0,0 l/m 0 min 2 min 0 W/m 0,0 km/h (0 Bft) 95,74 %
25.09.2020 01:42 13,7 C 11,1 C 11,1 C 88 % 996,8 hPa 0,2 l/m 0 min 2 min 0 W/m 3,2 km/h (1 Bft) 97,87 %
25.09.2020 01:44 13,6 C 10,6 C 11,1 C 88 % 996,9 hPa 0,0 l/m 0 min 2 min 0 W/m 6,4 km/h (2 Bft) 95,74 %
25.09.2020 01:46 13,5 C 10,6 C 11,1 C 89 % 996,8 hPa 0,0 l/m 0 min 2 min 0 W/m 12,9 km/h (3 Bft) 95,74 %
25.09.2020 01:48 13,4 C 10,6 C 11,1 C 89 % 996,7 hPa 0,0 l/m 0 min 2 min 0 W/m 3,2 km/h (1 Bft) 97,87 %
25.09.2020 01:50 13,3 C 10,6 C 11,1 C 89 % 996,8 hPa 0,2 l/m 0 min 2 min 0 W/m 0,0 km/h (0 Bft) 97,83 %
25.09.2020 01:52 13,3 C 10,6 C 11,1 C 89 % 996,9 hPa 0,0 l/m 0 min 2 min 0 W/m 12,9 km/h (3 Bft) 97,87 %
25.09.2020 01:54 13,2 C 10,6 C 11,1 C 90 % 996,8 hPa 0,0 l/m 0 min 2 min 0 W/m 12,9 km/h (3 Bft) 97,87 %
25.09.2020 01:56 13,2 C 10,6 C 10,6 C 90 % 996,9 hPa 0,0 l/m 0 min 2 min 0 W/m 16,1 km/h (3 Bft) 97,87 %
25.09.2020 01:58 13,1 C 10,6 C 10,6 C 90 % 996,9 hPa 0,0 l/m 0 min 2 min 0 W/m 12,9 km/h (3 Bft) 95,74 %
25.09.2020 02:00 13,1 C 10,6 C 11,1 C 90 % 996,9 hPa 0,0 l/m 0 min 0 min 0 W/m 3,2 km/h (1 Bft) 97,87 %
25.09.2020 02:02 13,0 C 10,6 C 10,6 C 90 % 996,6 hPa 0,0 l/m 0 min 0 min 0 W/m 6,4 km/h (2 Bft) 97,87 %
25.09.2020 02:04 12,9 C 10,6 C 10,6 C 90 % 996,5 hPa 0,0 l/m 0 min 0 min 0 W/m 3,2 km/h (1 Bft) 97,87 %
25.09.2020 02:06 12,9 C 10,6 C 10,6 C 91 % 996,4 hPa 0,0 l/m 0 min 0 min 0 W/m 3,2 km/h (1 Bft) 96,00 %
25.09.2020 02:08 12,9 C 10,6 C 10,6 C 91 % 996,5 hPa 0,0 l/m 0 min 0 min 0 W/m 12,9 km/h (3 Bft) 97,83 %
25.09.2020 02:10 12,8 C 11,1 C 10,6 C 91 % 996,5 hPa 0,0 l/m 0 min 2 min 0 W/m 16,1 km/h (3 Bft) 95,74 %
25.09.2020 02:12 12,8 C 11,1 C 10,6 C 91 % 996,5 hPa 0,0 l/m 0 min 2 min 0 W/m 12,9 km/h (3 Bft) 95,65 %
25.09.2020 02:14 12,8 C 10,6 C 10,6 C 91 % 996,5 hPa 0,0 l/m 0 min 2 min 0 W/m 0,0 km/h (0 Bft) 95,74 %
25.09.2020 02:16 12,7 C 10,6 C 10,6 C 91 % 996,5 hPa 0,0 l/m 0 min 2 min 0 W/m 16,1 km/h (3 Bft) 95,74 %
25.09.2020 02:18 12,7 C 10,6 C 10,6 C 91 % 996,4 hPa 0,0 l/m 0 min 2 min 0 W/m 0,0 km/h (0 Bft) 95,74 %
25.09.2020 02:20 12,7 C 10,6 C 10,6 C 91 % 996,4 hPa 0,0 l/m 0 min 2 min 0 W/m 16,1 km/h (3 Bft) 95,74 %
25.09.2020 02:22 12,7 C 10,6 C 10,6 C 91 % 996,6 hPa 0,0 l/m 0 min 0 min 0 W/m 6,4 km/h (2 Bft) 95,74 %
25.09.2020 02:24 12,6 C 10,6 C 10,6 C 92 % 996,6 hPa 0,0 l/m 0 min 2 min 0 W/m 12,9 km/h (3 Bft) 95,65 %
25.09.2020 02:26 12,6 C 10,6 C 10,6 C 92 % 996,7 hPa 0,0 l/m 0 min 2 min 0 W/m 12,9 km/h (3 Bft) 91,49 %
25.09.2020 02:28 12,6 C 10,6 C 10,6 C 92 % 996,7 hPa 0,0 l/m 0 min 2 min 0 W/m 6,4 km/h (2 Bft) 97,87 %
25.09.2020 02:30 12,6 C 10,6 C 10,6 C 92 % 996,8 hPa 0,0 l/m 0 min 2 min 0 W/m 16,1 km/h (3 Bft) 93,62 %
25.09.2020 02:32 12,5 C 10,6 C 10,6 C 92 % 996,8 hPa 0,0 l/m 0 min 2 min 0 W/m 16,1 km/h (3 Bft) 93,75 %
25.09.2020 02:34 12,5 C 10,6 C 10,6 C 92 % 996,8 hPa 0,0 l/m 0 min 0 min 0 W/m 16,1 km/h (3 Bft) 61,70 %
25.09.2020 02:36 12,5 C 10,6 C 10,6 C 92 % 996,8 hPa 0,0 l/m 0 min 0 min 0 W/m 22,5 km/h (4 Bft) 84,78 %
25.09.2020 02:38 12,4 C 10,6 C 10,6 C 92 % 996,7 hPa 0,0 l/m 0 min 0 min 0 W/m 0,0 km/h (0 Bft) 95,74 %
25.09.2020 02:40 12,4 C 10,6 C 10,6 C 92 % 996,6 hPa 0,0 l/m 0 min 0 min 0 W/m 12,9 km/h (3 Bft) 91,49 %
25.09.2020 02:42 12,4 C 10,6 C 10,6 C 92 % 996,6 hPa 0,0 l/m 0 min 0 min 0 W/m 12,9 km/h (3 Bft) 91,49 %
25.09.2020 02:44 12,4 C 10,6 C 10,6 C 93 % 996,6 hPa 0,0 l/m 0 min 0 min 0 W/m 6,4 km/h (2 Bft) 93,62 %
25.09.2020 02:46 12,4 C 10,6 C 10,6 C 93 % 996,7 hPa 0,0 l/m 0 min 0 min 0 W/m 6,4 km/h (2 Bft) 91,49 %
25.09.2020 02:48 12,3 C 10,6 C 10,6 C 93 % 996,7 hPa 0,0 l/m 0 min 0 min 0 W/m 12,9 km/h (3 Bft) 95,74 %
25.09.2020 02:50 12,3 C 10,6 C 10,6 C 93 % 996,8 hPa 0,0 l/m 0 min 0 min 0 W/m 16,1 km/h (3 Bft) 95,65 %
25.09.2020 02:52 12,3 C 10,6 C 10,6 C 93 % 996,9 hPa 0,0 l/m 0 min 0 min 0 W/m 12,9 km/h (3 Bft) 95,74 %
25.09.2020 02:54 12,3 C 10,6 C 10,6 C 93 % 996,9 hPa 0,0 l/m 0 min 2 min 0 W/m 16,1 km/h (3 Bft) 93,62 %
25.09.2020 02:56 12,3 C 10,6 C 10,6 C 93 % 997,0 hPa 0,0 l/m 0 min 0 min 0 W/m 19,3 km/h (3 Bft) 93,62 %
25.09.2020 02:58 12,3 C 10,6 C 10,6 C 93 % 997,0 hPa 0,0 l/m 0 min 0 min 0 W/m 6,4 km/h (2 Bft) 93,62 %
25.09.2020 03:00 12,3 C 10,6 C 10,6 C 93 % 997,1 hPa 0,0 l/m 0 min 0 min 0 W/m 6,4 km/h (2 Bft) 97,83 %
25.09.2020 03:02 12,3 C 10,6 C 10,6 C 93 % 997,1 hPa 0,0 l/m 0 min 0 min 0 W/m 16,1 km/h (3 Bft) 97,87 %
25.09.2020 03:04 12,2 C 10,6 C 10,6 C 93 % 997,1 hPa 0,0 l/m 0 min 2 min 0 W/m 6,4 km/h (2 Bft) 95,74 %
25.09.2020 03:06 12,2 C 10,6 C 10,6 C 93 % 997,1 hPa 0,0 l/m 0 min 2 min 0 W/m 16,1 km/h (3 Bft) 97,87 %
25.09.2020 03:08 12,2 C 10,6 C 10,6 C 93 % 997,0 hPa 0,0 l/m 0 min 2 min 0 W/m 3,2 km/h (1 Bft) 97,87 %
25.09.2020 03:10 12,2 C 10,6 C 10,6 C 94 % 997,0 hPa 0,0 l/m 0 min 2 min 0 W/m 3,2 km/h (1 Bft) 97,87 %
25.09.2020 03:12 12,2 C 10,6 C 10,6 C 94 % 996,8 hPa 0,0 l/m 0 min 0 min 0 W/m 9,7 km/h (2 Bft) 97,83 %
25.09.2020 03:14 12,2 C 10,6 C 10,6 C 94 % 996,7 hPa 0,0 l/m 0 min 0 min 0 W/m 3,2 km/h (1 Bft) 95,74 %
25.09.2020 03:16 12,2 C 10,6 C 10,6 C 94 % 996,8 hPa 0,0 l/m 0 min 0 min 0 W/m 6,4 km/h (2 Bft) 95,74 %
25.09.2020 03:18 12,2 C 10,6 C 10,6 C 94 % 996,8 hPa 0,0 l/m 0 min 0 min 0 W/m 16,1 km/h (3 Bft) 97,87 %
25.09.2020 03:20 12,2 C 10,6 C 10,6 C 94 % 996,7 hPa 0,0 l/m 0 min 0 min 0 W/m 3,2 km/h (1 Bft) 97,87 %
25.09.2020 03:22 12,2 C 10,6 C 10,6 C 94 % 996,6 hPa 0,0 l/m 0 min 0 min 0 W/m 3,2 km/h (1 Bft) 97,87 %
25.09.2020 03:24 12,1 C 10,6 C 10,6 C 94 % 996,5 hPa 0,0 l/m 0 min 0 min 0 W/m 3,2 km/h (1 Bft) 97,83 %
25.09.2020 03:26 12,1 C 10,6 C 10,6 C 94 % 996,5 hPa 0,0 l/m 0 min 0 min 0 W/m 3,2 km/h (1 Bft) 97,87 %
25.09.2020 03:28 12,1 C 10,6 C 10,6 C 94 % 996,6 hPa 0,0 l/m 0 min 0 min 0 W/m 3,2 km/h (1 Bft) 97,87 %
25.09.2020 03:30 12,1 C 10,6 C 10,6 C 94 % 996,7 hPa 0,0 l/m 0 min 0 min 0 W/m 3,2 km/h (1 Bft) 95,74 %
25.09.2020 03:32 12,1 C 10,6 C 10,6 C 94 % 996,8 hPa 0,0 l/m 0 min 0 min 0 W/m 16,1 km/h (3 Bft) 100,00 %
25.09.2020 03:34 12,1 C 10,6 C 10,6 C 94 % 996,8 hPa 0,0 l/m 0 min 0 min 0 W/m 12,9 km/h (3 Bft) 100,00 %
25.09.2020 03:36 12,1 C 10,6 C 10,6 C 94 % 996,8 hPa 0,0 l/m 0 min 0 min 0 W/m 12,9 km/h (3 Bft) 100,00 %
25.09.2020 03:38 12,1 C 10,6 C 10,0 C 94 % 996,7 hPa 0,0 l/m 0 min 0 min 0 W/m 19,3 km/h (3 Bft) 97,87 %
25.09.2020 03:40 12,0 C 10,6 C 10,0 C 94 % 996,7 hPa 0,0 l/m 0 min 0 min 0 W/m 6,4 km/h (2 Bft) 100,00 %
25.09.2020 03:42 12,0 C 10,6 C 10,0 C 94 % 996,7 hPa 0,0 l/m 0 min 0 min 0 W/m 3,2 km/h (1 Bft) 100,00 %
25.09.2020 03:44 12,0 C 10,6 C 10,0 C 94 % 996,7 hPa 0,0 l/m 0 min 0 min 0 W/m 16,1 km/h (3 Bft) 97,87 %
25.09.2020 03:46 11,9 C 10,6 C 10,0 C 94 % 996,8 hPa 0,0 l/m 0 min 0 min 0 W/m 9,7 km/h (2 Bft) 97,87 %
25.09.2020 03:48 11,9 C 10,6 C 10,0 C 94 % 996,7 hPa 0,0 l/m 0 min 0 min 0 W/m 6,4 km/h (2 Bft) 97,83 %
25.09.2020 03:50 11,9 C 10,6 C 10,0 C 94 % 996,8 hPa 0,0 l/m 0 min 0 min 0 W/m 9,7 km/h (2 Bft) 100,00 %
25.09.2020 03:52 11,9 C 10,6 C 10,0 C 94 % 996,9 hPa 0,0 l/m 0 min 0 min 0 W/m 0,0 km/h (0 Bft) 100,00 %
25.09.2020 03:54 11,9 C 10,6 C 10,0 C 94 % 996,9 hPa 0,0 l/m 0 min 0 min 0 W/m 0,0 km/h (0 Bft) 100,00 %
25.09.2020 03:56 11,9 C 10,6 C 10,0 C 94 % 996,8 hPa 0,0 l/m 0 min 0 min 0 W/m 0,0 km/h (0 Bft) 100,00 %
25.09.2020 03:58 11,9 C 10,6 C 10,0 C 94 % 996,7 hPa 0,0 l/m 0 min 0 min 0 W/m 6,4 km/h (2 Bft) 100,00 %
25.09.2020 04:00 11,9 C 10,6 C 10,0 C 94 % 996,8 hPa 0,0 l/m 0 min 0 min 0 W/m 0,0 km/h (0 Bft) 100,00 %
25.09.2020 04:02 11,9 C 10,6 C 10,0 C 94 % 996,7 hPa 0,0 l/m 0 min 0 min 0 W/m 0,0 km/h (0 Bft) 100,00 %
25.09.2020 04:04 11,9 C 10,6 C 10,0 C 94 % 996,5 hPa 0,0 l/m 0 min 0 min 0 W/m 0,0 km/h (0 Bft) 100,00 %
25.09.2020 04:06 11,8 C 10,6 C 10,0 C 94 % 996,5 hPa 0,0 l/m 0 min 0 min 0 W/m 3,2 km/h (1 Bft) 100,00 %
25.09.2020 04:08 11,8 C 10,6 C 10,6 C 94 % 996,5 hPa 0,0 l/m 0 min 2 min 0 W/m 12,9 km/h (3 Bft) 100,00 %
25.09.2020 04:10 11,8 C 10,6 C 10,6 C 94 % 996,6 hPa 0,0 l/m 0 min 2 min 0 W/m 3,2 km/h (1 Bft) 100,00 %
25.09.2020 04:12 11,8 C 10,6 C 10,0 C 94 % 996,6 hPa 0,0 l/m 0 min 0 min 0 W/m 0,0 km/h (0 Bft) 100,00 %
25.09.2020 04:14 11,8 C 10,6 C 10,0 C 94 % 996,6 hPa 0,0 l/m 0 min 0 min 0 W/m 6,4 km/h (2 Bft) 97,87 %
25.09.2020 04:16 11,8 C 10,6 C 10,0 C 94 % 996,6 hPa 0,0 l/m 0 min 0 min 0 W/m 3,2 km/h (1 Bft) 100,00 %
25.09.2020 04:18 11,8 C 10,6 C 10,0 C 94 % 996,8 hPa 0,0 l/m 0 min 0 min 0 W/m 6,4 km/h (2 Bft) 100,00 %
25.09.2020 04:20 11,8 C 10,6 C 10,6 C 94 % 997,0 hPa 0,0 l/m 0 min 0 min 0 W/m 3,2 km/h (1 Bft) 100,00 %
25.09.2020 04:22 11,8 C 10,6 C 10,6 C 94 % 997,1 hPa 0,0 l/m 0 min 0 min 0 W/m 6,4 km/h (2 Bft) 100,00 %
25.09.2020 04:24 11,8 C 10,6 C 10,6 C 94 % 997,1 hPa 0,0 l/m 0 min 0 min 0 W/m 3,2 km/h (1 Bft) 100,00 %
25.09.2020 04:26 11,8 C 10,6 C 10,6 C 94 % 997,0 hPa 0,0 l/m 0 min 0 min 0 W/m 3,2 km/h (1 Bft) 100,00 %
25.09.2020 04:28 11,8 C 10,6 C 10,0 C 94 % 997,0 hPa 0,0 l/m 0 min 0 min 0 W/m 6,4 km/h (2 Bft) 100,00 %
25.09.2020 04:30 11,7 C 10,6 C 10,6 C 94 % 997,0 hPa 0,0 l/m 0 min 0 min 0 W/m 12,9 km/h (3 Bft) 100,00 %
25.09.2020 04:32 11,7 C 10,6 C 10,0 C 94 % 996,9 hPa 0,0 l/m 0 min 0 min 0 W/m 6,4 km/h (2 Bft) 100,00 %
25.09.2020 04:34 11,7 C 10,6 C 10,0 C 94 % 996,9 hPa 0,0 l/m 0 min 0 min 0 W/m 3,2 km/h (1 Bft) 97,83 %
25.09.2020 04:36 11,7 C 10,6 C 10,6 C 94 % 996,9 hPa 0,0 l/m 0 min 0 min 0 W/m 16,1 km/h (3 Bft) 100,00 %
25.09.2020 04:38 11,7 C 10,6 C 10,6 C 94 % 996,9 hPa 0,0 l/m 0 min 0 min 0 W/m 12,9 km/h (3 Bft) 100,00 %
25.09.2020 04:40 11,7 C 10,6 C 10,0 C 94 % 996,9 hPa 0,0 l/m 0 min 0 min 0 W/m 16,1 km/h (3 Bft) 100,00 %
25.09.2020 04:42 11,7 C 10,6 C 10,0 C 94 % 996,9 hPa 0,0 l/m 0 min 0 min 0 W/m 16,1 km/h (3 Bft) 100,00 %
25.09.2020 04:44 11,7 C 10,6 C 10,0 C 94 % 997,0 hPa 0,0 l/m 0 min 2 min 0 W/m 12,9 km/h (3 Bft) 97,83 %
25.09.2020 04:46 11,7 C 10,0 C 10,0 C 94 % 996,8 hPa 0,0 l/m 0 min 2 min 0 W/m 25,7 km/h (4 Bft) 97,87 %
25.09.2020 04:48 11,6 C 10,0 C 10,0 C 94 % 996,8 hPa 0,0 l/m 0 min 2 min 0 W/m 29,0 km/h (5 Bft) 97,87 %
25.09.2020 04:50 11,6 C 10,0 C 10,0 C 94 % 996,7 hPa 0,0 l/m 0 min 2 min 0 W/m 29,0 km/h (5 Bft) 97,87 %
25.09.2020 04:52 11,6 C 10,0 C 10,0 C 94 % 996,7 hPa 0,0 l/m 0 min 2 min 0 W/m 16,1 km/h (3 Bft) 97,87 %
25.09.2020 04:54 11,6 C 10,0 C 10,0 C 93 % 996,7 hPa 0,0 l/m 0 min 2 min 0 W/m 25,7 km/h (4 Bft) 95,74 %
25.09.2020 04:56 11,6 C 10,0 C 10,0 C 93 % 996,7 hPa 0,0 l/m 0 min 0 min 0 W/m 16,1 km/h (3 Bft) 97,83 %
25.09.2020 04:58 11,6 C 10,0 C 10,0 C 93 % 996,7 hPa 0,0 l/m 0 min 0 min 0 W/m 16,1 km/h (3 Bft) 95,74 %
25.09.2020 05:00 11,5 C 10,0 C 10,0 C 93 % 996,7 hPa 0,0 l/m 0 min 0 min 0 W/m 32,2 km/h (5 Bft) 95,74 %
25.09.2020 05:02 11,5 C 10,0 C 10,0 C 93 % 996,6 hPa 0,0 l/m 0 min 0 min 0 W/m 12,9 km/h (3 Bft) 97,87 %
25.09.2020 05:04 11,5 C 10,0 C 10,0 C 93 % 996,5 hPa 0,0 l/m 0 min 0 min 0 W/m 19,3 km/h (3 Bft) 97,87 %
25.09.2020 05:06 11,4 C 10,0 C 10,0 C 93 % 996,5 hPa 0,0 l/m 0 min 0 min 0 W/m 12,9 km/h (3 Bft) 97,87 %
25.09.2020 05:08 11,4 C 10,0 C 10,0 C 93 % 996,4 hPa 0,0 l/m 0 min 0 min 0 W/m 22,5 km/h (4 Bft) 97,83 %
25.09.2020 05:10 11,4 C 10,0 C 10,0 C 92 % 996,7 hPa 0,0 l/m 0 min 0 min 0 W/m 32,2 km/h (5 Bft) 97,87 %
25.09.2020 05:12 11,4 C 10,0 C 9,4 C 92 % 996,6 hPa 0,0 l/m 0 min 0 min 0 W/m 22,5 km/h (4 Bft) 95,74 %
25.09.2020 05:14 11,3 C 10,0 C 9,4 C 92 % 996,6 hPa 0,0 l/m 0 min 0 min 0 W/m 16,1 km/h (3 Bft) 97,87 %
25.09.2020 05:16 11,3 C 10,0 C 9,4 C 92 % 996,5 hPa 0,0 l/m 0 min 0 min 0 W/m 19,3 km/h (3 Bft) 95,74 %
25.09.2020 05:18 11,3 C 10,0 C 9,4 C 92 % 996,5 hPa 0,0 l/m 0 min 0 min 0 W/m 16,1 km/h (3 Bft) 95,74 %
25.09.2020 05:20 11,3 C 10,0 C 9,4 C 92 % 996,5 hPa 0,0 l/m 0 min 0 min 0 W/m 19,3 km/h (3 Bft) 97,83 %
25.09.2020 05:22 11,2 C 9,4 C 9,4 C 92 % 996,6 hPa 0,0 l/m 0 min 0 min 0 W/m 19,3 km/h (3 Bft) 97,87 %
25.09.2020 05:24 11,2 C 9,4 C 9,4 C 92 % 996,6 hPa 0,0 l/m 0 min 0 min 0 W/m 12,9 km/h (3 Bft) 97,87 %
25.09.2020 05:26 11,2 C 9,4 C 9,4 C 92 % 996,6 hPa 0,0 l/m 0 min 0 min 0 W/m 16,1 km/h (3 Bft) 100,00 %
25.09.2020 05:28 11,2 C 9,4 C 9,4 C 92 % 996,5 hPa 0,0 l/m 0 min 0 min 0 W/m 22,5 km/h (4 Bft) 100,00 %
25.09.2020 05:30 11,1 C 9,4 C 9,4 C 91 % 996,4 hPa 0,0 l/m 0 min 0 min 0 W/m 16,1 km/h (3 Bft) 100,00 %
25.09.2020 05:32 11,1 C 9,4 C 9,4 C 91 % 996,5 hPa 0,0 l/m 0 min 0 min 0 W/m 12,9 km/h (3 Bft) 100,00 %
25.09.2020 05:34 11,1 C 9,4 C 9,4 C 91 % 996,5 hPa 0,0 l/m 0 min 0 min 0 W/m 16,1 km/h (3 Bft) 100,00 %
25.09.2020 05:36 11,1 C 9,4 C 9,4 C 91 % 996,5 hPa 0,0 l/m 0 min 0 min 0 W/m 16,1 km/h (3 Bft) 100,00 %
25.09.2020 05:38 11,0 C 9,4 C 9,4 C 91 % 996,5 hPa 0,0 l/m 0 min 0 min 0 W/m 12,9 km/h (3 Bft) 100,00 %
25.09.2020 05:40 10,9 C 9,4 C 9,4 C 91 % 996,6 hPa 0,0 l/m 0 min 0 min 0 W/m 25,7 km/h (4 Bft) 100,00 %
25.09.2020 05:42 10,9 C 9,4 C 9,4 C 91 % 996,6 hPa 0,0 l/m 0 min 0 min 0 W/m 19,3 km/h (3 Bft) 100,00 %
25.09.2020 05:44 10,9 C 9,4 C 9,4 C 91 % 996,7 hPa 0,0 l/m 0 min 0 min 0 W/m 16,1 km/h (3 Bft) 100,00 %
25.09.2020 05:46 10,8 C 9,4 C 9,4 C 91 % 996,6 hPa 0,0 l/m 0 min 0 min 0 W/m 12,9 km/h (3 Bft) 98,04 %
25.09.2020 05:48 10,8 C 9,4 C 9,4 C 91 % 996,6 hPa 0,0 l/m 0 min 0 min 0 W/m 16,1 km/h (3 Bft) 97,87 %
25.09.2020 05:50 10,8 C 9,4 C 8,9 C 91 % 996,7 hPa 0,0 l/m 0 min 0 min 0 W/m 12,9 km/h (3 Bft) 97,87 %
25.09.2020 05:52 10,7 C 9,4 C 8,9 C 91 % 996,7 hPa 0,0 l/m 0 min 0 min 0 W/m 16,1 km/h (3 Bft) 93,62 %
25.09.2020 05:54 10,7 C 9,4 C 8,9 C 91 % 996,7 hPa 0,0 l/m 0 min 0 min 0 W/m 19,3 km/h (3 Bft) 95,74 %
25.09.2020 05:56 10,7 C 9,4 C 8,9 C 91 % 996,7 hPa 0,0 l/m 0 min 0 min 0 W/m 32,2 km/h (5 Bft) 91,30 %
25.09.2020 05:58 10,7 C 9,4 C 8,9 C 91 % 996,6 hPa 0,0 l/m 0 min 0 min 0 W/m 19,3 km/h (3 Bft) 93,62 %
25.09.2020 06:00 10,6 C 9,4 C 8,9 C 91 % 996,6 hPa 0,0 l/m 0 min 0 min 0 W/m 22,5 km/h (4 Bft) 95,74 %
25.09.2020 06:02 10,6 C 9,4 C 8,9 C 91 % 996,7 hPa 0,0 l/m 0 min 0 min 0 W/m 29,0 km/h (5 Bft) 95,74 %
25.09.2020 06:04 10,6 C 9,4 C 8,9 C 91 % 996,7 hPa 0,0 l/m 0 min 0 min 0 W/m 19,3 km/h (3 Bft) 95,74 %
25.09.2020 06:08 10,5 C 9,4 C 8,9 C 91 % 996,8 hPa 0,0 l/m 0 min 0 min 0 W/m 19,3 km/h (3 Bft) 93,55 %
25.09.2020 06:10 10,4 C 9,4 C 8,9 C 91 % 996,9 hPa 0,0 l/m 0 min 0 min 0 W/m 16,1 km/h (3 Bft) 95,74 %
25.09.2020 06:12 10,4 C 9,4 C 8,9 C 91 % 996,9 hPa 0,0 l/m 0 min 0 min 0 W/m 22,5 km/h (4 Bft) 93,62 %
25.09.2020 06:14 10,4 C 9,4 C 8,9 C 91 % 997,0 hPa 0,0 l/m 0 min 0 min 0 W/m 19,3 km/h (3 Bft) 95,74 %
25.09.2020 06:16 10,3 C 9,4 C 8,9 C 91 % 996,9 hPa 0,0 l/m 0 min 0 min 0 W/m 25,7 km/h (4 Bft) 93,62 %
25.09.2020 06:18 10,3 C 9,4 C 8,9 C 91 % 996,7 hPa 0,0 l/m 0 min 0 min 0 W/m 19,3 km/h (3 Bft) 95,65 %
25.09.2020 06:20 10,3 C 9,4 C 8,9 C 90 % 996,8 hPa 0,0 l/m 0 min 0 min 0 W/m 29,0 km/h (5 Bft) 95,74 %
25.09.2020 06:22 10,2 C 9,4 C 8,9 C 90 % 996,7 hPa 0,0 l/m 0 min 0 min 0 W/m 19,3 km/h (3 Bft) 95,74 %
25.09.2020 06:24 10,2 C 9,4 C 8,9 C 90 % 996,7 hPa 0,0 l/m 0 min 0 min 0 W/m 22,5 km/h (4 Bft) 95,74 %
25.09.2020 06:26 10,2 C 9,4 C 8,9 C 90 % 996,8 hPa 0,0 l/m 0 min 0 min 0 W/m 16,1 km/h (3 Bft) 93,62 %
25.09.2020 06:28 10,2 C 9,4 C 8,9 C 90 % 996,8 hPa 0,0 l/m 0 min 0 min 0 W/m 25,7 km/h (4 Bft) 95,74 %
25.09.2020 06:30 10,2 C 9,4 C 8,9 C 90 % 996,7 hPa 0,0 l/m 0 min 0 min 0 W/m 19,3 km/h (3 Bft) 95,65 %
25.09.2020 06:32 10,1 C 9,4 C 8,9 C 90 % 996,8 hPa 0,0 l/m 0 min 0 min 0 W/m 19,3 km/h (3 Bft) 95,74 %
25.09.2020 06:34 10,1 C 9,4 C 8,9 C 90 % 996,8 hPa 0,0 l/m 0 min 0 min 0 W/m 22,5 km/h (4 Bft) 95,74 %
25.09.2020 06:36 10,1 C 9,4 C 8,9 C 89 % 996,7 hPa 0,0 l/m 0 min 0 min 0 W/m 25,7 km/h (4 Bft) 95,74 %
25.09.2020 06:38 10,1 C 9,4 C 8,9 C 89 % 996,7 hPa 0,0 l/m 0 min 0 min 0 W/m 25,7 km/h (4 Bft) 93,62 %
25.09.2020 06:40 10,1 C 9,4 C 8,9 C 89 % 996,6 hPa 0,0 l/m 0 min 0 min 0 W/m 22,5 km/h (4 Bft) 97,87 %
25.09.2020 06:42 10,1 C 9,4 C 8,9 C 89 % 996,7 hPa 0,0 l/m 0 min 0 min 0 W/m 16,1 km/h (3 Bft) 97,83 %
25.09.2020 06:44 10,0 C 9,4 C 8,3 C 89 % 996,5 hPa 0,0 l/m 0 min 0 min 0 W/m 16,1 km/h (3 Bft) 95,74 %
25.09.2020 06:46 10,0 C 8,9 C 8,3 C 89 % 996,6 hPa 0,0 l/m 0 min 0 min 0 W/m 12,9 km/h (3 Bft) 93,62 %
25.09.2020 06:48 10,0 C 8,9 C 8,3 C 89 % 996,6 hPa 0,0 l/m 0 min 0 min 0 W/m 16,1 km/h (3 Bft) 97,87 %
25.09.2020 06:50 10,0 C 8,9 C 8,3 C 89 % 996,6 hPa 0,0 l/m 0 min 0 min 0 W/m 16,1 km/h (3 Bft) 95,74 %
25.09.2020 06:52 10,0 C 8,9 C 8,3 C 89 % 996,7 hPa 0,0 l/m 0 min 0 min 0 W/m 12,9 km/h (3 Bft) 97,87 %
25.09.2020 06:54 9,9 C 8,9 C 8,3 C 89 % 996,7 hPa 0,0 l/m 0 min 0 min 0 W/m 22,5 km/h (4 Bft) 97,83 %
25.09.2020 06:56 9,9 C 8,9 C 8,3 C 88 % 996,9 hPa 0,0 l/m 0 min 0 min 0 W/m 12,9 km/h (3 Bft) 95,74 %
25.09.2020 06:58 9,9 C 8,9 C 8,3 C 88 % 996,9 hPa 0,0 l/m 0 min 0 min 0 W/m 16,1 km/h (3 Bft) 97,87 %
25.09.2020 07:00 9,9 C 8,9 C 8,3 C 88 % 996,9 hPa 0,0 l/m 0 min 0 min 0 W/m 22,5 km/h (4 Bft) 97,87 %
25.09.2020 07:02 9,9 C 8,9 C 8,3 C 88 % 996,9 hPa 0,0 l/m 0 min 0 min 0 W/m 19,3 km/h (3 Bft) 96,23 %
25.09.2020 07:04 9,8 C 8,9 C 8,3 C 88 % 996,8 hPa 0,0 l/m 0 min 0 min 0 W/m 16,1 km/h (3 Bft) 97,87 %
25.09.2020 07:06 9,8 C 8,9 C 8,3 C 88 % 996,7 hPa 0,0 l/m 0 min 0 min 0 W/m 19,3 km/h (3 Bft) 95,74 %
25.09.2020 07:08 9,8 C 8,9 C 8,3 C 88 % 996,5 hPa 0,0 l/m 0 min 0 min 0 W/m 12,9 km/h (3 Bft) 93,62 %
25.09.2020 07:10 9,8 C 8,9 C 8,3 C 88 % 996,5 hPa 0,0 l/m 0 min 0 min 0 W/m 25,7 km/h (4 Bft) 97,14 %
25.09.2020 07:12 9,8 C 8,9 C 8,3 C 88 % 996,5 hPa 0,0 l/m 0 min 0 min 0 W/m 12,9 km/h (3 Bft) 98,28 %
25.09.2020 07:14 9,8 C 8,9 C 8,3 C 88 % 996,6 hPa 0,0 l/m 0 min 0 min 0 W/m 25,7 km/h (4 Bft) 97,87 %
25.09.2020 07:16 9,8 C 8,9 C 8,3 C 88 % 996,6 hPa 0,0 l/m 0 min 0 min 0 W/m 16,1 km/h (3 Bft) 97,87 %
25.09.2020 07:18 9,7 C 8,9 C 8,3 C 88 % 996,6 hPa 0,0 l/m 0 min 0 min 0 W/m 12,9 km/h (3 Bft) 95,74 %
25.09.2020 07:20 9,7 C 8,9 C 8,3 C 88 % 996,7 hPa 0,0 l/m 0 min 0 min 0 W/m 16,1 km/h (3 Bft) 97,14 %
25.09.2020 07:22 9,7 C 8,3 C 8,3 C 88 % 996,7 hPa 0,0 l/m 0 min 0 min 0 W/m 25,7 km/h (4 Bft) 98,31 %
25.09.2020 07:24 9,7 C 8,9 C 8,3 C 88 % 996,8 hPa 0,0 l/m 0 min 0 min 0 W/m 32,2 km/h (5 Bft) 97,83 %
25.09.2020 07:26 9,7 C 8,9 C 8,3 C 88 % 996,8 hPa 0,0 l/m 0 min 0 min 0 W/m 16,1 km/h (3 Bft) 97,87 %
25.09.2020 07:28 9,6 C 8,3 C 8,3 C 88 % 996,9 hPa 0,0 l/m 0 min 0 min 0 W/m 25,7 km/h (4 Bft) 97,14 %
25.09.2020 07:30 9,6 C 8,3 C 7,8 C 88 % 996,9 hPa 0,0 l/m 0 min 0 min 0 W/m 19,3 km/h (3 Bft) 98,31 %
25.09.2020 07:32 9,6 C 8,3 C 7,8 C 88 % 996,9 hPa 0,0 l/m 0 min 0 min 3 W/m 12,9 km/h (3 Bft) 97,14 %
25.09.2020 07:34 9,6 C 8,3 C 7,8 C 88 % 997,0 hPa 0,0 l/m 0 min 0 min 5 W/m 16,1 km/h (3 Bft) 96,61 %
25.09.2020 07:36 9,6 C 8,3 C 7,8 C 89 % 997,0 hPa 0,0 l/m 0 min 0 min 7 W/m 16,1 km/h (3 Bft) 100,00 %
25.09.2020 07:38 9,6 C 8,3 C 7,8 C 89 % 997,0 hPa 0,0 l/m 0 min 0 min 7 W/m 25,7 km/h (4 Bft) 96,55 %
25.09.2020 07:40 9,6 C 8,3 C 7,8 C 89 % 997,0 hPa 0,0 l/m 0 min 0 min 7 W/m 19,3 km/h (3 Bft) 97,87 %
25.09.2020 07:42 9,6 C 8,3 C 7,8 C 89 % 996,9 hPa 0,0 l/m 0 min 0 min 8 W/m 16,1 km/h (3 Bft) 97,14 %
25.09.2020 07:44 9,5 C 8,3 C 7,8 C 89 % 997,0 hPa 0,0 l/m 0 min 0 min 10 W/m 22,5 km/h (4 Bft) 98,31 %
25.09.2020 07:46 9,5 C 8,3 C 7,8 C 89 % 997,0 hPa 0,0 l/m 0 min 0 min 11 W/m 16,1 km/h (3 Bft) 94,29 %
25.09.2020 07:48 9,5 C 8,3 C 7,8 C 89 % 997,0 hPa 0,0 l/m 0 min 0 min 12 W/m 9,7 km/h (2 Bft) 98,08 %
25.09.2020 07:50 9,4 C 8,3 C 7,8 C 89 % 997,1 hPa 0,0 l/m 0 min 0 min 13 W/m 12,9 km/h (3 Bft) 97,87 %
25.09.2020 07:52 9,4 C 8,9 C 7,8 C 89 % 997,1 hPa 0,0 l/m 0 min 0 min 14 W/m 16,1 km/h (3 Bft) 100,00 %
25.09.2020 07:54 9,4 C 8,9 C 8,3 C 89 % 997,2 hPa 0,0 l/m 0 min 0 min 14 W/m 22,5 km/h (4 Bft) 100,00 %
25.09.2020 07:56 9,4 C 8,9 C 8,3 C 89 % 997,2 hPa 0,0 l/m 0 min 0 min 15 W/m 19,3 km/h (3 Bft) 100,00 %
25.09.2020 07:58 9,4 C 8,9 C 8,3 C 89 % 997,2 hPa 0,0 l/m 0 min 0 min 18 W/m 16,1 km/h (3 Bft) 100,00 %
25.09.2020 08:00 9,4 C 8,9 C 8,3 C 89 % 997,2 hPa 0,0 l/m 0 min 0 min 18 W/m 19,3 km/h (3 Bft) 95,74 %
25.09.2020 08:02 9,4 C 8,9 C 8,3 C 89 % 997,1 hPa 0,0 l/m 0 min 0 min 18 W/m 16,1 km/h (3 Bft) 100,00 %
25.09.2020 08:04 9,4 C 8,9 C 8,3 C 89 % 997,1 hPa 0,0 l/m 0 min 0 min 16 W/m 19,3 km/h (3 Bft) 100,00 %
25.09.2020 08:06 9,4 C 8,9 C 8,3 C 89 % 997,1 hPa 0,0 l/m 0 min 0 min 15 W/m 22,5 km/h (4 Bft) 100,00 %
25.09.2020 08:08 9,4 C 8,9 C 8,3 C 88 % 997,2 hPa 0,0 l/m 0 min 0 min 14 W/m 22,5 km/h (4 Bft) 100,00 %
25.09.2020 08:10 9,4 C 8,9 C 8,3 C 89 % 997,1 hPa 0,0 l/m 0 min 0 min 12 W/m 16,1 km/h (3 Bft) 100,00 %
25.09.2020 08:12 9,4 C 8,9 C 8,3 C 88 % 997,1 hPa 0,0 l/m 0 min 0 min 14 W/m 16,1 km/h (3 Bft) 100,00 %
25.09.2020 08:14 9,4 C 8,9 C 8,3 C 88 % 997,2 hPa 0,0 l/m 0 min 0 min 17 W/m 19,3 km/h (3 Bft) 100,00 %
25.09.2020 08:16 9,4 C 8,9 C 8,3 C 88 % 997,3 hPa 0,0 l/m 0 min 0 min 21 W/m 16,1 km/h (3 Bft) 97,87 %
25.09.2020 08:18 9,4 C 8,9 C 8,3 C 88 % 997,4 hPa 0,0 l/m 0 min 0 min 21 W/m 19,3 km/h (3 Bft) 100,00 %
25.09.2020 08:20 9,4 C 8,9 C 8,3 C 88 % 997,3 hPa 0,0 l/m 0 min 0 min 21 W/m 9,7 km/h (2 Bft) 100,00 %
25.09.2020 08:22 9,4 C 8,9 C 8,3 C 88 % 997,4 hPa 0,0 l/m 0 min 0 min 21 W/m 12,9 km/h (3 Bft) 100,00 %
25.09.2020 08:24 9,4 C 8,9 C 8,3 C 88 % 997,4 hPa 0,0 l/m 0 min 0 min 22 W/m 16,1 km/h (3 Bft) 100,00 %
25.09.2020 08:26 9,5 C 8,9 C 8,3 C 88 % 997,5 hPa 0,0 l/m 0 min 0 min 22 W/m 6,4 km/h (2 Bft) 53,19 %
25.09.2020 08:28 9,5 C 8,9 C 8,3 C 88 % 997,5 hPa 0,0 l/m 0 min 0 min 22 W/m 12,9 km/h (3 Bft) 97,83 %
25.09.2020 08:30 9,5 C 8,9 C 8,3 C 88 % 997,5 hPa 0,0 l/m 0 min 0 min 23 W/m 6,4 km/h (2 Bft) 100,00 %
25.09.2020 08:32 9,5 C 8,9 C 8,3 C 88 % 997,4 hPa 0,0 l/m 0 min 0 min 20 W/m 12,9 km/h (3 Bft) 100,00 %
25.09.2020 08:34 9,5 C 8,9 C 8,3 C 88 % 997,4 hPa 0,0 l/m 0 min 0 min 24 W/m 12,9 km/h (3 Bft) 100,00 %
25.09.2020 08:36 9,5 C 8,9 C 8,3 C 88 % 997,4 hPa 0,0 l/m 0 min 0 min 25 W/m 16,1 km/h (3 Bft) 100,00 %
25.09.2020 08:38 9,6 C 8,9 C 8,3 C 88 % 997,5 hPa 0,0 l/m 0 min 0 min 24 W/m 16,1 km/h (3 Bft) 100,00 %
25.09.2020 08:40 9,5 C 9,4 C 8,3 C 88 % 997,4 hPa 0,0 l/m 0 min 0 min 26 W/m 16,1 km/h (3 Bft) 100,00 %
25.09.2020 08:42 9,5 C 9,4 C 8,3 C 88 % 997,4 hPa 0,0 l/m 0 min 0 min 25 W/m 12,9 km/h (3 Bft) 97,83 %
25.09.2020 08:44 9,6 C 9,4 C 8,3 C 87 % 997,4 hPa 0,0 l/m 0 min 0 min 26 W/m 6,4 km/h (2 Bft) 98,15 %
25.09.2020 08:46 9,6 C 9,4 C 8,3 C 87 % 997,5 hPa 0,0 l/m 0 min 0 min 29 W/m 19,3 km/h (3 Bft) 100,00 %
25.09.2020 08:48 9,6 C 9,4 C 8,3 C 87 % 997,4 hPa 0,0 l/m 0 min 0 min 30 W/m 22,5 km/h (4 Bft) 100,00 %
25.09.2020 08:50 9,6 C 9,4 C 8,3 C 87 % 997,4 hPa 0,0 l/m 0 min 0 min 32 W/m 12,9 km/h (3 Bft) 97,87 %
25.09.2020 08:52 9,6 C 9,4 C 8,3 C 87 % 997,3 hPa 0,0 l/m 0 min 0 min 32 W/m 6,4 km/h (2 Bft) 97,92 %
25.09.2020 08:54 9,6 C 9,4 C 8,3 C 87 % 997,3 hPa 0,0 l/m 0 min 0 min 36 W/m 12,9 km/h (3 Bft) 95,74 %
25.09.2020 08:56 9,6 C 9,4 C 8,9 C 87 % 997,3 hPa 0,0 l/m 0 min 0 min 52 W/m 16,1 km/h (3 Bft) 97,87 %
25.09.2020 08:58 9,7 C 10,0 C 8,9 C 87 % 997,2 hPa 0,0 l/m 0 min 0 min 73 W/m 12,9 km/h (3 Bft) 95,74 %
25.09.2020 09:00 9,7 C 10,0 C 8,9 C 87 % 997,2 hPa 0,0 l/m 0 min 0 min 81 W/m 16,1 km/h (3 Bft) 97,83 %
25.09.2020 09:02 9,7 C 10,0 C 8,9 C 87 % 997,1 hPa 0,0 l/m 0 min 0 min 93 W/m 16,1 km/h (3 Bft) 95,74 %
25.09.2020 09:04 9,8 C 10,6 C 9,4 C 87 % 997,1 hPa 0,0 l/m 0 min 0 min 92 W/m 16,1 km/h (3 Bft) 95,83 %
25.09.2020 09:06 9,8 C 10,6 C 9,4 C 87 % 997,1 hPa 0,0 l/m 0 min 0 min 93 W/m 6,4 km/h (2 Bft) 95,83 %
25.09.2020 09:08 9,9 C 10,6 C 9,4 C 87 % 997,2 hPa 0,0 l/m 0 min 0 min 84 W/m 6,4 km/h (2 Bft) 97,92 %
25.09.2020 09:10 9,9 C 10,6 C 9,4 C 87 % 997,2 hPa 0,0 l/m 0 min 0 min 63 W/m 6,4 km/h (2 Bft) 97,87 %
25.09.2020 09:12 9,9 C 10,0 C 9,4 C 87 % 997,2 hPa 0,0 l/m 0 min 0 min 64 W/m 22,5 km/h (4 Bft) 97,83 %
25.09.2020 09:14 10,0 C 10,0 C 9,4 C 86 % 997,1 hPa 0,0 l/m 0 min 0 min 71 W/m 16,1 km/h (3 Bft) 97,87 %
25.09.2020 09:16 10,0 C 10,6 C 9,4 C 86 % 997,2 hPa 0,0 l/m 0 min 0 min 77 W/m 16,1 km/h (3 Bft) 97,87 %
25.09.2020 09:18 10,1 C 10,6 C 9,4 C 86 % 997,2 hPa 0,0 l/m 0 min 0 min 98 W/m 16,1 km/h (3 Bft) 95,74 %
25.09.2020 09:20 10,1 C 10,6 C 9,4 C 86 % 997,2 hPa 0,0 l/m 0 min 0 min 112 W/m 12,9 km/h (3 Bft) 97,87 %
25.09.2020 09:22 10,2 C 10,6 C 9,4 C 86 % 997,2 hPa 0,0 l/m 0 min 0 min 90 W/m 12,9 km/h (3 Bft) 100,00 %
25.09.2020 09:24 10,2 C 10,6 C 9,4 C 86 % 997,2 hPa 0,0 l/m 0 min 0 min 81 W/m 16,1 km/h (3 Bft) 94,83 %
25.09.2020 09:26 10,2 C 10,6 C 9,4 C 86 % 997,3 hPa 0,0 l/m 0 min 0 min 86 W/m 9,7 km/h (2 Bft) 97,22 %
25.09.2020 09:28 10,3 C 10,6 C 9,4 C 85 % 997,3 hPa 0,0 l/m 0 min 0 min 92 W/m 12,9 km/h (3 Bft) 96,55 %
25.09.2020 09:30 10,3 C 10,6 C 9,4 C 85 % 997,3 hPa 0,0 l/m 0 min 0 min 96 W/m 12,9 km/h (3 Bft) 95,74 %
25.09.2020 09:32 10,3 C 10,6 C 9,4 C 85 % 997,3 hPa 0,0 l/m 0 min 0 min 91 W/m 19,3 km/h (3 Bft) 97,62 %
25.09.2020 09:34 10,4 C 10,6 C 9,4 C 85 % 997,3 hPa 0,0 l/m 0 min 0 min 83 W/m 19,3 km/h (3 Bft) 97,87 %
25.09.2020 09:36 10,4 C 10,6 C 9,4 C 85 % 997,4 hPa 0,0 l/m 0 min 0 min 84 W/m 12,9 km/h (3 Bft) 97,87 %
25.09.2020 09:38 10,4 C 10,6 C 9,4 C 85 % 997,3 hPa 0,0 l/m 0 min 0 min 85 W/m 12,9 km/h (3 Bft) 93,62 %
25.09.2020 09:40 10,5 C 10,6 C 9,4 C 84 % 997,3 hPa 0,0 l/m 0 min 0 min 89 W/m 22,5 km/h (4 Bft) 100,00 %
25.09.2020 09:42 10,5 C 10,6 C 9,4 C 84 % 997,3 hPa 0,0 l/m 0 min 0 min 92 W/m 16,1 km/h (3 Bft) 97,92 %
25.09.2020 09:44 10,6 C 10,6 C 9,4 C 84 % 997,3 hPa 0,0 l/m 0 min 0 min 94 W/m 16,1 km/h (3 Bft) 100,00 %
25.09.2020 09:46 10,6 C 10,6 C 9,4 C 84 % 997,3 hPa 0,0 l/m 0 min 0 min 92 W/m 16,1 km/h (3 Bft) 95,74 %
25.09.2020 09:48 10,6 C 10,6 C 9,4 C 84 % 997,3 hPa 0,0 l/m 0 min 0 min 83 W/m 12,9 km/h (3 Bft) 97,87 %
25.09.2020 09:50 10,6 C 10,6 C 9,4 C 84 % 997,4 hPa 0,0 l/m 0 min 0 min 76 W/m 16,1 km/h (3 Bft) 97,87 %
25.09.2020 09:52 10,7 C 10,6 C 9,4 C 84 % 997,5 hPa 0,0 l/m 0 min 0 min 74 W/m 12,9 km/h (3 Bft) 94,29 %
25.09.2020 09:54 10,7 C 10,6 C 9,4 C 84 % 997,6 hPa 0,0 l/m 0 min 0 min 72 W/m 3,2 km/h (1 Bft) 95,74 %
25.09.2020 09:56 10,7 C 10,6 C 9,4 C 83 % 997,6 hPa 0,0 l/m 0 min 0 min 70 W/m 16,1 km/h (3 Bft) 94,44 %
25.09.2020 09:58 10,7 C 10,6 C 9,4 C 83 % 997,6 hPa 0,0 l/m 0 min 0 min 67 W/m 12,9 km/h (3 Bft) 95,74 %
25.09.2020 10:00 10,8 C 10,6 C 10,0 C 83 % 997,6 hPa 0,0 l/m 0 min 0 min 77 W/m 16,1 km/h (3 Bft) 95,83 %
25.09.2020 10:02 10,8 C 11,1 C 10,0 C 83 % 997,5 hPa 0,0 l/m 0 min 0 min 83 W/m 3,2 km/h (1 Bft) 91,67 %
25.09.2020 10:04 10,8 C 11,1 C 10,0 C 83 % 997,5 hPa 0,0 l/m 0 min 0 min 84 W/m 12,9 km/h (3 Bft) 95,83 %
25.09.2020 10:06 10,8 C 11,1 C 10,0 C 83 % 997,5 hPa 0,0 l/m 0 min 0 min 84 W/m 12,9 km/h (3 Bft) 95,83 %
25.09.2020 10:08 10,8 C 11,1 C 10,0 C 83 % 997,5 hPa 0,0 l/m 0 min 0 min 85 W/m 19,3 km/h (3 Bft) 95,74 %
25.09.2020 10:10 10,9 C 11,1 C 10,0 C 83 % 997,5 hPa 0,0 l/m 0 min 0 min 84 W/m 6,4 km/h (2 Bft) 93,48 %
25.09.2020 10:12 10,9 C 11,1 C 10,0 C 83 % 997,5 hPa 0,0 l/m 0 min 0 min 87 W/m 12,9 km/h (3 Bft) 95,74 %
25.09.2020 10:14 10,9 C 11,1 C 10,0 C 83 % 997,5 hPa 0,0 l/m 0 min 0 min 102 W/m 16,1 km/h (3 Bft) 95,74 %
25.09.2020 10:16 10,9 C 11,1 C 10,0 C 83 % 997,4 hPa 0,0 l/m 0 min 0 min 110 W/m 12,9 km/h (3 Bft) 95,74 %
25.09.2020 10:18 11,0 C 11,7 C 10,0 C 83 % 997,5 hPa 0,0 l/m 0 min 0 min 109 W/m 12,9 km/h (3 Bft) 95,74 %
25.09.2020 10:20 11,0 C 11,7 C 10,0 C 83 % 997,4 hPa 0,0 l/m 0 min 0 min 117 W/m 9,7 km/h (2 Bft) 93,62 %
25.09.2020 10:22 11,1 C 11,7 C 10,0 C 82 % 997,3 hPa 0,0 l/m 0 min 0 min 136 W/m 9,7 km/h (2 Bft) 94,29 %
25.09.2020 10:24 11,1 C 12,2 C 10,6 C 82 % 997,4 hPa 0,0 l/m 0 min 0 min 171 W/m 19,3 km/h (3 Bft) 94,83 %
25.09.2020 10:26 11,2 C 12,2 C 10,6 C 82 % 997,4 hPa 0,0 l/m 0 min 0 min 179 W/m 16,1 km/h (3 Bft) 97,14 %
25.09.2020 10:28 11,2 C 12,2 C 11,1 C 82 % 997,4 hPa 0,0 l/m 0 min 0 min 189 W/m 12,9 km/h (3 Bft) 92,73 %
25.09.2020 10:30 11,3 C 12,2 C 11,1 C 82 % 997,4 hPa 0,0 l/m 0 min 0 min 171 W/m 16,1 km/h (3 Bft) 95,83 %
25.09.2020 10:32 11,3 C 12,2 C 11,1 C 82 % 997,4 hPa 0,0 l/m 0 min 0 min 151 W/m 16,1 km/h (3 Bft) 95,65 %
25.09.2020 10:34 11,3 C 11,7 C 10,6 C 82 % 997,4 hPa 0,0 l/m 0 min 0 min 122 W/m 22,5 km/h (4 Bft) 95,83 %
25.09.2020 10:36 11,4 C 11,7 C 10,6 C 82 % 997,4 hPa 0,0 l/m 0 min 0 min 126 W/m 22,5 km/h (4 Bft) 95,74 %
25.09.2020 10:38 11,4 C 12,2 C 10,6 C 81 % 997,4 hPa 0,0 l/m 0 min 0 min 176 W/m 22,5 km/h (4 Bft) 97,92 %
25.09.2020 10:40 11,5 C 12,2 C 10,6 C 82 % 997,4 hPa 0,0 l/m 0 min 0 min 142 W/m 12,9 km/h (3 Bft) 97,87 %
25.09.2020 10:42 11,6 C 12,2 C 10,6 C 81 % 997,4 hPa 0,0 l/m 0 min 0 min 129 W/m 19,3 km/h (3 Bft) 97,87 %
25.09.2020 10:44 11,6 C 11,7 C 10,6 C 81 % 997,5 hPa 0,0 l/m 0 min 0 min 114 W/m 16,1 km/h (3 Bft) 97,83 %
25.09.2020 10:46 11,6 C 11,7 C 10,6 C 81 % 997,5 hPa 0,0 l/m 0 min 0 min 111 W/m 22,5 km/h (4 Bft) 97,87 %
25.09.2020 10:48 11,6 C 11,7 C 10,6 C 80 % 997,6 hPa 0,0 l/m 0 min 0 min 108 W/m 19,3 km/h (3 Bft) 97,87 %
25.09.2020 10:50 11,6 C 11,7 C 10,6 C 80 % 997,5 hPa 0,0 l/m 0 min 0 min 122 W/m 0,0 km/h (0 Bft) 97,87 %
25.09.2020 10:52 11,6 C 11,7 C 10,6 C 80 % 997,6 hPa 0,0 l/m 0 min 0 min 100 W/m 12,9 km/h (3 Bft) 100,00 %
25.09.2020 10:54 11,6 C 11,7 C 10,6 C 80 % 997,6 hPa 0,0 l/m 0 min 0 min 88 W/m 25,7 km/h (4 Bft) 100,00 %
25.09.2020 10:56 11,6 C 11,7 C 10,6 C 80 % 997,6 hPa 0,0 l/m 0 min 0 min 90 W/m 19,3 km/h (3 Bft) 100,00 %
25.09.2020 10:58 11,6 C 11,7 C 10,6 C 80 % 997,7 hPa 0,0 l/m 0 min 0 min 88 W/m 16,1 km/h (3 Bft) 100,00 %
25.09.2020 11:00 11,7 C 11,7 C 10,6 C 80 % 997,8 hPa 0,0 l/m 0 min 0 min 96 W/m 6,4 km/h (2 Bft) 100,00 %
25.09.2020 11:02 11,7 C 11,1 C 10,6 C 80 % 997,9 hPa 0,0 l/m 0 min 0 min 89 W/m 22,5 km/h (4 Bft) 97,87 %
25.09.2020 11:04 11,7 C 11,1 C 10,6 C 80 % 997,8 hPa 0,0 l/m 0 min 0 min 94 W/m 25,7 km/h (4 Bft) 100,00 %
25.09.2020 11:06 11,6 C 11,1 C 10,6 C 80 % 997,8 hPa 0,0 l/m 0 min 0 min 102 W/m 25,7 km/h (4 Bft) 100,00 %
25.09.2020 11:08 11,6 C 11,1 C 10,6 C 80 % 997,9 hPa 0,0 l/m 0 min 0 min 101 W/m 6,4 km/h (2 Bft) 100,00 %
25.09.2020 11:10 11,7 C 11,1 C 10,6 C 80 % 997,8 hPa 0,0 l/m 0 min 0 min 105 W/m 22,5 km/h (4 Bft) 100,00 %
25.09.2020 11:12 11,7 C 11,1 C 10,6 C 81 % 997,8 hPa 0,0 l/m 0 min 0 min 120 W/m 12,9 km/h (3 Bft) 100,00 %
25.09.2020 11:14 11,7 C 11,1 C 10,6 C 81 % 997,7 hPa 0,0 l/m 0 min 0 min 145 W/m 22,5 km/h (4 Bft) 100,00 %
25.09.2020 11:16 11,7 C 11,7 C 10,6 C 81 % 997,7 hPa 0,0 l/m 0 min 0 min 156 W/m 12,9 km/h (3 Bft) 100,00 %
25.09.2020 11:18 11,7 C 11,7 C 10,6 C 82 % 997,7 hPa 0,0 l/m 0 min 0 min 168 W/m 22,5 km/h (4 Bft) 100,00 %
25.09.2020 11:20 11,7 C 12,2 C 11,1 C 82 % 997,6 hPa 0,0 l/m 0 min 0 min 204 W/m 6,4 km/h (2 Bft) 100,00 %
25.09.2020 11:22 11,7 C 12,2 C 11,1 C 82 % 997,6 hPa 0,0 l/m 0 min 0 min 223 W/m 25,7 km/h (4 Bft) 100,00 %
25.09.2020 11:24 11,7 C 12,8 C 11,7 C 81 % 997,5 hPa 0,0 l/m 0 min 0 min 257 W/m 22,5 km/h (4 Bft) 95,74 %
25.09.2020 11:26 11,8 C 12,8 C 11,7 C 81 % 997,5 hPa 0,0 l/m 0 min 0 min 246 W/m 32,2 km/h (5 Bft) 97,87 %
25.09.2020 11:28 11,8 C 13,3 C 11,7 C 81 % 997,5 hPa 0,0 l/m 0 min 0 min 240 W/m 16,1 km/h (3 Bft) 97,87 %
25.09.2020 11:30 11,8 C 13,3 C 11,7 C 81 % 997,5 hPa 0,0 l/m 2 min 0 min 287 W/m 32,2 km/h (5 Bft) 97,83 %
25.09.2020 11:32 11,9 C 13,9 C 12,2 C 81 % 997,5 hPa 0,0 l/m 2 min 0 min 335 W/m 19,3 km/h (3 Bft) 97,92 %
25.09.2020 11:34 12,0 C 14,4 C 12,2 C 81 % 997,4 hPa 0,0 l/m 2 min 0 min 319 W/m 16,1 km/h (3 Bft) 95,74 %
25.09.2020 11:36 12,1 C 14,4 C 12,2 C 81 % 997,4 hPa 0,0 l/m 2 min 0 min 298 W/m 22,5 km/h (4 Bft) 97,87 %
25.09.2020 11:38 12,1 C 14,4 C 12,2 C 81 % 997,4 hPa 0,0 l/m 2 min 0 min 303 W/m 19,3 km/h (3 Bft) 95,74 %
25.09.2020 11:40 12,2 C 14,4 C 12,8 C 81 % 997,3 hPa 0,0 l/m 2 min 0 min 355 W/m 22,5 km/h (4 Bft) 97,87 %
25.09.2020 11:42 12,3 C 15,6 C 12,8 C 80 % 997,2 hPa 0,0 l/m 2 min 0 min 442 W/m 19,3 km/h (3 Bft) 97,83 %
25.09.2020 11:44 12,4 C 16,7 C 12,8 C 80 % 997,1 hPa 0,0 l/m 2 min 0 min 527 W/m 19,3 km/h (3 Bft) 97,87 %
25.09.2020 11:46 12,6 C 17,2 C 13,3 C 80 % 997,2 hPa 0,0 l/m 2 min 0 min 532 W/m 22,5 km/h (4 Bft) 97,87 %
25.09.2020 11:48 12,7 C 17,2 C 13,3 C 80 % 997,1 hPa 0,0 l/m 2 min 0 min 497 W/m 19,3 km/h (3 Bft) 97,87 %
25.09.2020 11:50 12,8 C 16,7 C 13,3 C 79 % 997,2 hPa 0,0 l/m 2 min 0 min 497 W/m 22,5 km/h (4 Bft) 97,87 %
25.09.2020 11:52 13,0 C 16,1 C 12,8 C 78 % 997,1 hPa 0,0 l/m 2 min 0 min 395 W/m 16,1 km/h (3 Bft) 97,14 %
25.09.2020 11:54 13,1 C 17,8 C 13,3 C 78 % 997,2 hPa 0,0 l/m 2 min 0 min 345 W/m 22,5 km/h (4 Bft) 95,74 %
25.09.2020 11:56 13,2 C 18,3 C 13,3 C 78 % 997,1 hPa 0,0 l/m 2 min 0 min 759 W/m 19,3 km/h (3 Bft) 95,74 %
25.09.2020 11:58 13,3 C 15,6 C 12,8 C 77 % 997,1 hPa 0,0 l/m 2 min 0 min 529 W/m 19,3 km/h (3 Bft) 97,83 %
25.09.2020 12:00 13,4 C 14,4 C 12,8 C 76 % 997,1 hPa 0,0 l/m 0 min 0 min 216 W/m 25,7 km/h (4 Bft) 95,74 %
25.09.2020 12:02 13,4 C 13,9 C 12,8 C 76 % 997,1 hPa 0,0 l/m 0 min 0 min 181 W/m 16,1 km/h (3 Bft) 98,15 %
25.09.2020 12:04 13,5 C 13,9 C 12,8 C 76 % 997,0 hPa 0,0 l/m 0 min 0 min 192 W/m 16,1 km/h (3 Bft) 97,87 %
25.09.2020 12:07 13,5 C 14,4 C 12,8 C 76 % 997,1 hPa 0,0 l/m 0 min 0 min 278 W/m 22,5 km/h (4 Bft) 100,00 %
25.09.2020 12:08 13,5 C 15,0 C 12,8 C 76 % 997,1 hPa 0,0 l/m 1 min 0 min 332 W/m 25,7 km/h (4 Bft) 100,00 %
25.09.2020 12:10 13,6 C 16,1 C 12,8 C 75 % 997,0 hPa 0,0 l/m 2 min 0 min 409 W/m 19,3 km/h (3 Bft) 97,87 %
25.09.2020 12:12 13,6 C 15,6 C 13,3 C 75 % 997,0 hPa 0,0 l/m 2 min 0 min 324 W/m 16,1 km/h (3 Bft) 100,00 %
25.09.2020 12:14 13,6 C 16,1 C 13,3 C 75 % 997,0 hPa 0,0 l/m 0 min 0 min 285 W/m 22,5 km/h (4 Bft) 100,00 %
25.09.2020 12:16 13,7 C 16,7 C 13,3 C 76 % 997,0 hPa 0,0 l/m 2 min 0 min 360 W/m 19,3 km/h (3 Bft) 95,74 %
25.09.2020 12:18 13,7 C 18,3 C 13,3 C 76 % 997,1 hPa 0,0 l/m 2 min 0 min 371 W/m 22,5 km/h (4 Bft) 97,83 %
25.09.2020 12:20 13,9 C 18,9 C 13,9 C 76 % 997,0 hPa 0,0 l/m 2 min 0 min 519 W/m 29,0 km/h (5 Bft) 100,00 %
25.09.2020 12:22 14,0 C 18,9 C 13,9 C 75 % 997,0 hPa 0,0 l/m 2 min 0 min 771 W/m 19,3 km/h (3 Bft) 100,00 %
25.09.2020 12:24 14,1 C 19,4 C 13,3 C 74 % 996,9 hPa 0,0 l/m 2 min 0 min 684 W/m 29,0 km/h (5 Bft) 100,00 %
25.09.2020 12:26 14,3 C 19,4 C 13,3 C 72 % 997,0 hPa 0,0 l/m 2 min 0 min 673 W/m 29,0 km/h (5 Bft) 95,74 %
25.09.2020 12:28 14,3 C 19,4 C 12,8 C 72 % 997,1 hPa 0,0 l/m 2 min 0 min 645 W/m 29,0 km/h (5 Bft) 100,00 %
25.09.2020 12:30 14,3 C 19,4 C 12,8 C 72 % 997,1 hPa 0,0 l/m 2 min 0 min 693 W/m 32,2 km/h (5 Bft) 97,83 %
25.09.2020 12:32 14,4 C 20,0 C 13,3 C 72 % 997,0 hPa 0,0 l/m 2 min 0 min 716 W/m 29,0 km/h (5 Bft) 100,00 %
25.09.2020 12:34 14,6 C 20,0 C 13,3 C 71 % 997,0 hPa 0,0 l/m 2 min 0 min 644 W/m 29,0 km/h (5 Bft) 100,00 %
25.09.2020 12:36 14,7 C 18,9 C 13,3 C 71 % 997,1 hPa 0,0 l/m 2 min 0 min 561 W/m 22,5 km/h (4 Bft) 100,00 %
25.09.2020 12:38 14,7 C 18,9 C 13,3 C 71 % 997,1 hPa 0,0 l/m 2 min 0 min 400 W/m 22,5 km/h (4 Bft) 100,00 %
25.09.2020 12:40 14,8 C 18,9 C 13,3 C 71 % 997,0 hPa 0,0 l/m 2 min 0 min 811 W/m 19,3 km/h (3 Bft) 100,00 %
25.09.2020 12:42 14,9 C 18,9 C 13,3 C 71 % 997,0 hPa 0,0 l/m 2 min 0 min 816 W/m 22,5 km/h (4 Bft) 100,00 %
25.09.2020 12:44 14,9 C 18,9 C 13,3 C 71 % 996,9 hPa 0,0 l/m 2 min 0 min 821 W/m 29,0 km/h (5 Bft) 100,00 %
25.09.2020 12:46 15,0 C 20,6 C 13,9 C 72 % 997,1 hPa 0,0 l/m 2 min 0 min 781 W/m 19,3 km/h (3 Bft) 100,00 %
25.09.2020 12:48 15,1 C 19,4 C 13,9 C 72 % 996,9 hPa 0,0 l/m 2 min 0 min 725 W/m 25,7 km/h (4 Bft) 97,87 %
25.09.2020 12:50 15,2 C 20,6 C 13,9 C 72 % 997,0 hPa 0,0 l/m 2 min 0 min 766 W/m 19,3 km/h (3 Bft) 97,87 %
25.09.2020 12:52 15,2 C 18,9 C 13,9 C 71 % 997,1 hPa 0,0 l/m 2 min 0 min 782 W/m 32,2 km/h (5 Bft) 97,83 %
25.09.2020 12:54 15,3 C 19,4 C 13,9 C 70 % 997,0 hPa 0,0 l/m 2 min 0 min 476 W/m 32,2 km/h (5 Bft) 97,87 %
25.09.2020 12:56 15,3 C 19,4 C 14,4 C 70 % 996,9 hPa 0,0 l/m 2 min 0 min 615 W/m 35,4 km/h (5 Bft) 95,74 %
25.09.2020 12:58 15,4 C 19,4 C 14,4 C 69 % 996,8 hPa 0,0 l/m 2 min 0 min 615 W/m 35,4 km/h (5 Bft) 97,87 %
25.09.2020 13:00 15,4 C 17,8 C 14,4 C 69 % 996,9 hPa 0,0 l/m 2 min 0 min 509 W/m 38,6 km/h (5 Bft) 97,87 %
25.09.2020 13:02 15,5 C 19,4 C 14,4 C 68 % 996,9 hPa 0,0 l/m 2 min 0 min 306 W/m 25,7 km/h (4 Bft) 97,87 %
25.09.2020 13:04 15,5 C 18,3 C 13,9 C 68 % 996,7 hPa 0,0 l/m 2 min 0 min 306 W/m 25,7 km/h (4 Bft) 97,83 %
25.09.2020 13:06 15,5 C 17,8 C 14,4 C 68 % 996,7 hPa 0,0 l/m 2 min 0 min 306 W/m 32,2 km/h (5 Bft) 97,87 %
25.09.2020 13:08 15,5 C 17,8 C 13,9 C 68 % 996,6 hPa 0,0 l/m 2 min 0 min 348 W/m 35,4 km/h (5 Bft) 95,74 %
25.09.2020 13:10 15,5 C 17,2 C 13,9 C 68 % 996,8 hPa 0,0 l/m 2 min 0 min 853 W/m 29,0 km/h (5 Bft) 97,87 %
25.09.2020 13:12 15,4 C 16,7 C 13,9 C 68 % 996,7 hPa 0,0 l/m 0 min 0 min 248 W/m 38,6 km/h (5 Bft) 93,62 %
25.09.2020 13:14 15,4 C 15,6 C 13,9 C 68 % 996,7 hPa 0,0 l/m 0 min 0 min 221 W/m 29,0 km/h (5 Bft) 97,87 %
25.09.2020 13:16 15,3 C 16,7 C 13,9 C 68 % 996,7 hPa 0,0 l/m 0 min 0 min 247 W/m 29,0 km/h (5 Bft) 91,30 %
25.09.2020 13:18 15,2 C 17,2 C 13,9 C 68 % 996,6 hPa 0,0 l/m 2 min 0 min 774 W/m 19,3 km/h (3 Bft) 97,87 %
25.09.2020 13:20 15,2 C 16,1 C 13,9 C 68 % 996,7 hPa 0,0 l/m 2 min 0 min 438 W/m 32,2 km/h (5 Bft) 95,74 %
25.09.2020 13:22 15,1 C 15,6 C 13,9 C 68 % 996,8 hPa 0,0 l/m 0 min 0 min 224 W/m 25,7 km/h (4 Bft) 95,74 %
25.09.2020 13:24 15,1 C 16,1 C 13,3 C 69 % 996,6 hPa 0,0 l/m 0 min 0 min 242 W/m 29,0 km/h (5 Bft) 97,87 %
25.09.2020 13:26 15,0 C 17,8 C 13,9 C 69 % 996,6 hPa 0,0 l/m 2 min 0 min 784 W/m 29,0 km/h (5 Bft) 95,74 %
25.09.2020 13:28 15,1 C 19,4 C 13,9 C 70 % 996,5 hPa 0,0 l/m 2 min 0 min 791 W/m 32,2 km/h (5 Bft) 97,83 %
25.09.2020 13:30 15,1 C 19,4 C 13,9 C 70 % 996,5 hPa 0,0 l/m 2 min 0 min 753 W/m 25,7 km/h (4 Bft) 97,87 %
25.09.2020 13:32 15,2 C 17,8 C 13,9 C 70 % 996,6 hPa 0,0 l/m 2 min 0 min 484 W/m 22,5 km/h (4 Bft) 100,00 %
25.09.2020 13:34 15,2 C 16,7 C 13,9 C 70 % 996,5 hPa 0,0 l/m 0 min 0 min 248 W/m 22,5 km/h (4 Bft) 97,87 %
25.09.2020 13:36 15,2 C 16,7 C 13,9 C 69 % 996,5 hPa 0,0 l/m 0 min 0 min 287 W/m 29,0 km/h (5 Bft) 100,00 %
25.09.2020 13:38 15,2 C 17,8 C 14,4 C 69 % 996,5 hPa 0,0 l/m 0 min 0 min 287 W/m 29,0 km/h (5 Bft) 97,87 %
25.09.2020 13:40 15,2 C 16,1 C 13,9 C 69 % 996,5 hPa 0,0 l/m 0 min 0 min 267 W/m 22,5 km/h (4 Bft) 95,65 %
25.09.2020 13:42 15,1 C 15,0 C 13,9 C 68 % 996,6 hPa 0,0 l/m 0 min 0 min 173 W/m 35,4 km/h (5 Bft) 93,62 %
25.09.2020 13:44 15,1 C 14,4 C 13,3 C 69 % 996,6 hPa 0,0 l/m 0 min 0 min 206 W/m 25,7 km/h (4 Bft) 95,74 %
25.09.2020 13:46 15,0 C 13,9 C 13,3 C 69 % 996,7 hPa 0,0 l/m 0 min 0 min 167 W/m 35,4 km/h (5 Bft) 95,74 %
25.09.2020 13:48 14,9 C 15,0 C 14,4 C 70 % 996,7 hPa 0,0 l/m 0 min 0 min 194 W/m 19,3 km/h (3 Bft) 95,74 %
25.09.2020 13:50 14,8 C 15,0 C 13,9 C 70 % 996,5 hPa 0,0 l/m 0 min 0 min 189 W/m 25,7 km/h (4 Bft) 95,74 %
25.09.2020 13:52 14,8 C 14,4 C 13,9 C 71 % 996,5 hPa 0,0 l/m 0 min 0 min 146 W/m 22,5 km/h (4 Bft) 95,65 %
25.09.2020 13:54 14,7 C 13,9 C 13,3 C 70 % 996,5 hPa 0,0 l/m 0 min 0 min 116 W/m 32,2 km/h (5 Bft) 96,15 %
25.09.2020 13:56 14,6 C 13,9 C 13,3 C 68 % 996,5 hPa 0,0 l/m 0 min 0 min 100 W/m 32,2 km/h (5 Bft) 93,62 %
25.09.2020 13:58 14,6 C 13,9 C 13,3 C 69 % 996,5 hPa 0,0 l/m 0 min 0 min 137 W/m 22,5 km/h (4 Bft) 93,62 %
25.09.2020 14:00 14,5 C 13,9 C 13,3 C 69 % 996,5 hPa 0,0 l/m 0 min 0 min 177 W/m 29,0 km/h (5 Bft) 93,62 %
25.09.2020 14:02 14,4 C 13,9 C 13,3 C 69 % 996,4 hPa 0,0 l/m 0 min 0 min 191 W/m 22,5 km/h (4 Bft) 95,74 %
25.09.2020 14:04 14,3 C 13,9 C 13,3 C 69 % 996,5 hPa 0,0 l/m 0 min 0 min 190 W/m 25,7 km/h (4 Bft) 95,65 %
25.09.2020 14:06 14,3 C 16,7 C 13,3 C 70 % 996,5 hPa 0,0 l/m 0 min 0 min 214 W/m 25,7 km/h (4 Bft) 95,74 %
25.09.2020 14:08 14,3 C 16,7 C 13,9 C 71 % 996,5 hPa 0,0 l/m 0 min 0 min 216 W/m 25,7 km/h (4 Bft) 95,74 %
25.09.2020 14:10 14,3 C 16,1 C 13,9 C 71 % 996,5 hPa 0,0 l/m 0 min 0 min 245 W/m 38,6 km/h (5 Bft) 93,62 %
25.09.2020 14:12 14,3 C 15,6 C 13,9 C 71 % 996,5 hPa 0,0 l/m 0 min 0 min 261 W/m 29,0 km/h (5 Bft) 93,62 %
25.09.2020 14:14 14,4 C 17,8 C 13,9 C 71 % 996,5 hPa 0,0 l/m 0 min 0 min 290 W/m 19,3 km/h (3 Bft) 93,62 %
25.09.2020 14:16 14,5 C 17,2 C 14,4 C 72 % 996,5 hPa 0,0 l/m 0 min 0 min 258 W/m 19,3 km/h (3 Bft) 95,65 %
25.09.2020 14:18 14,6 C 17,2 C 14,4 C 71 % 996,5 hPa 0,0 l/m 2 min 0 min 428 W/m 25,7 km/h (4 Bft) 95,74 %
25.09.2020 14:20 14,7 C 17,2 C 13,9 C 71 % 996,5 hPa 0,0 l/m 2 min 0 min 828 W/m 32,2 km/h (5 Bft) 95,74 %
25.09.2020 14:22 14,7 C 17,2 C 13,9 C 71 % 996,5 hPa 0,0 l/m 2 min 0 min 772 W/m 35,4 km/h (5 Bft) 97,87 %
25.09.2020 14:24 14,8 C 15,6 C 13,9 C 71 % 996,5 hPa 0,0 l/m 2 min 0 min 530 W/m 29,0 km/h (5 Bft) 95,74 %
25.09.2020 14:26 14,7 C 15,0 C 13,3 C 70 % 996,4 hPa 0,0 l/m 0 min 0 min 130 W/m 19,3 km/h (3 Bft) 97,87 %
25.09.2020 14:28 14,8 C 17,2 C 13,9 C 71 % 996,5 hPa 0,0 l/m 2 min 0 min 390 W/m 19,3 km/h (3 Bft) 97,83 %
25.09.2020 14:30 14,8 C 16,7 C 13,9 C 71 % 996,5 hPa 0,0 l/m 2 min 0 min 595 W/m 32,2 km/h (5 Bft) 97,87 %
25.09.2020 14:32 14,8 C 15,6 C 13,9 C 71 % 996,6 hPa 0,0 l/m 0 min 0 min 199 W/m 29,0 km/h (5 Bft) 95,74 %
25.09.2020 14:34 14,8 C 15,0 C 13,3 C 70 % 996,6 hPa 0,0 l/m 0 min 0 min 206 W/m 19,3 km/h (3 Bft) 97,87 %
25.09.2020 14:36 14,8 C 15,0 C 13,9 C 70 % 996,6 hPa 0,0 l/m 0 min 2 min 274 W/m 25,7 km/h (4 Bft) 97,87 %
25.09.2020 14:38 14,8 C 16,1 C 13,9 C 72 % 996,6 hPa 0,0 l/m 2 min 2 min 330 W/m 22,5 km/h (4 Bft) 97,83 %
25.09.2020 14:40 14,8 C 17,8 C 13,9 C 73 % 996,6 hPa 0,0 l/m 2 min 0 min 655 W/m 29,0 km/h (5 Bft) 97,87 %
25.09.2020 14:42 14,8 C 18,9 C 13,9 C 73 % 996,5 hPa 0,0 l/m 2 min 0 min 728 W/m 25,7 km/h (4 Bft) 95,74 %
25.09.2020 14:44 14,8 C 19,4 C 13,9 C 74 % 996,5 hPa 0,0 l/m 2 min 0 min 700 W/m 19,3 km/h (3 Bft) 100,00 %
25.09.2020 14:46 14,9 C 20,0 C 13,9 C 74 % 996,4 hPa 0,0 l/m 2 min 0 min 684 W/m 19,3 km/h (3 Bft) 97,87 %
25.09.2020 14:48 14,9 C 20,0 C 13,9 C 74 % 996,4 hPa 0,0 l/m 2 min 0 min 668 W/m 19,3 km/h (3 Bft) 97,87 %
25.09.2020 14:50 15,0 C 20,0 C 13,9 C 73 % 996,5 hPa 0,0 l/m 2 min 0 min 655 W/m 22,5 km/h (4 Bft) 97,83 %
25.09.2020 14:52 15,1 C 20,6 C 13,9 C 73 % 996,4 hPa 0,0 l/m 2 min 0 min 653 W/m 16,1 km/h (3 Bft) 100,00 %
25.09.2020 14:54 15,1 C 20,0 C 13,9 C 73 % 996,4 hPa 0,0 l/m 2 min 0 min 649 W/m 22,5 km/h (4 Bft) 100,00 %
25.09.2020 14:56 15,2 C 19,4 C 13,9 C 72 % 996,4 hPa 0,0 l/m 2 min 0 min 645 W/m 35,4 km/h (5 Bft) 100,00 %
25.09.2020 14:58 15,2 C 19,4 C 13,9 C 71 % 996,3 hPa 0,0 l/m 2 min 0 min 646 W/m 22,5 km/h (4 Bft) 100,00 %
25.09.2020 15:00 15,2 C 19,4 C 13,9 C 71 % 996,4 hPa 0,0 l/m 2 min 0 min 658 W/m 22,5 km/h (4 Bft) 100,00 %
25.09.2020 15:02 15,3 C 18,9 C 13,9 C 71 % 996,4 hPa 0,0 l/m 2 min 0 min 662 W/m 19,3 km/h (3 Bft) 97,83 %
25.09.2020 15:04 15,3 C 18,9 C 13,9 C 70 % 996,4 hPa 0,0 l/m 2 min 0 min 650 W/m 22,5 km/h (4 Bft) 100,00 %
25.09.2020 15:06 15,3 C 18,9 C 13,9 C 70 % 996,5 hPa 0,0 l/m 2 min 0 min 676 W/m 29,0 km/h (5 Bft) 100,00 %
25.09.2020 15:08 15,3 C 18,3 C 13,9 C 70 % 996,5 hPa 0,0 l/m 2 min 0 min 679 W/m 25,7 km/h (4 Bft) 100,00 %
25.09.2020 15:10 15,3 C 16,1 C 13,9 C 70 % 996,4 hPa 0,0 l/m 0 min 0 min 265 W/m 19,3 km/h (3 Bft) 100,00 %
25.09.2020 15:12 15,3 C 15,0 C 13,3 C 70 % 996,4 hPa 0,0 l/m 0 min 0 min 131 W/m 22,5 km/h (4 Bft) 100,00 %
25.09.2020 15:14 15,3 C 14,4 C 13,3 C 70 % 996,4 hPa 0,0 l/m 0 min 0 min 99 W/m 19,3 km/h (3 Bft) 100,00 %
25.09.2020 15:16 15,2 C 13,9 C 13,3 C 70 % 996,4 hPa 0,0 l/m 0 min 0 min 107 W/m 22,5 km/h (4 Bft) 100,00 %
25.09.2020 15:18 15,2 C 14,4 C 13,3 C 71 % 996,4 hPa 0,0 l/m 0 min 0 min 153 W/m 19,3 km/h (3 Bft) 100,00 %
25.09.2020 15:20 15,1 C 14,4 C 13,9 C 71 % 996,4 hPa 0,0 l/m 0 min 0 min 232 W/m 19,3 km/h (3 Bft) 100,00 %
25.09.2020 15:22 15,1 C 14,4 C 13,9 C 72 % 996,4 hPa 0,0 l/m 0 min 0 min 151 W/m 16,1 km/h (3 Bft) 100,00 %
25.09.2020 15:24 15,0 C 14,4 C 13,3 C 72 % 996,3 hPa 0,0 l/m 0 min 0 min 138 W/m 12,9 km/h (3 Bft) 100,00 %
25.09.2020 15:26 15,0 C 16,7 C 13,9 C 72 % 996,4 hPa 0,0 l/m 0 min 0 min 151 W/m 16,1 km/h (3 Bft) 95,74 %
25.09.2020 15:28 15,0 C 18,3 C 13,9 C 74 % 996,4 hPa 0,0 l/m 2 min 0 min 666 W/m 19,3 km/h (3 Bft) 97,87 %
25.09.2020 15:30 15,1 C 17,8 C 14,4 C 74 % 996,3 hPa 0,0 l/m 2 min 0 min 528 W/m 19,3 km/h (3 Bft) 97,87 %
25.09.2020 15:32 15,1 C 17,2 C 13,9 C 74 % 996,4 hPa 0,0 l/m 2 min 0 min 480 W/m 19,3 km/h (3 Bft) 97,87 %
25.09.2020 15:34 15,1 C 16,1 C 13,9 C 73 % 996,4 hPa 0,0 l/m 2 min 0 min 262 W/m 22,5 km/h (4 Bft) 97,83 %
25.09.2020 15:36 15,1 C 15,0 C 13,9 C 72 % 996,3 hPa 0,0 l/m 0 min 0 min 224 W/m 29,0 km/h (5 Bft) 97,87 %
25.09.2020 15:38 15,0 C 14,4 C 13,9 C 71 % 996,4 hPa 0,0 l/m 0 min 0 min 188 W/m 35,4 km/h (5 Bft) 97,87 %
25.09.2020 15:40 14,9 C 14,4 C 13,9 C 71 % 996,4 hPa 0,0 l/m 0 min 0 min 232 W/m 29,0 km/h (5 Bft) 97,87 %
25.09.2020 15:42 14,9 C 14,4 C 13,3 C 70 % 996,5 hPa 0,0 l/m 0 min 0 min 230 W/m 32,2 km/h (5 Bft) 97,87 %
25.09.2020 15:44 14,8 C 14,4 C 13,3 C 70 % 996,4 hPa 0,0 l/m 0 min 0 min 227 W/m 25,7 km/h (4 Bft) 97,87 %
25.09.2020 15:46 14,7 C 15,0 C 13,3 C 70 % 996,5 hPa 0,0 l/m 2 min 0 min 269 W/m 35,4 km/h (5 Bft) 100,00 %
25.09.2020 15:48 14,7 C 15,6 C 13,3 C 70 % 996,5 hPa 0,0 l/m 2 min 0 min 302 W/m 12,9 km/h (3 Bft) 97,87 %
25.09.2020 15:50 14,7 C 15,6 C 13,9 C 70 % 996,5 hPa 0,0 l/m 2 min 0 min 324 W/m 19,3 km/h (3 Bft) 97,87 %
25.09.2020 15:52 14,7 C 16,7 C 13,9 C 70 % 996,5 hPa 0,0 l/m 2 min 0 min 346 W/m 19,3 km/h (3 Bft) 97,87 %
25.09.2020 15:54 14,7 C 16,7 C 13,9 C 71 % 996,5 hPa 0,0 l/m 2 min 0 min 353 W/m 25,7 km/h (4 Bft) 95,74 %
25.09.2020 15:56 14,7 C 17,2 C 14,4 C 70 % 996,5 hPa 0,0 l/m 2 min 0 min 327 W/m 16,1 km/h (3 Bft) 97,37 %
25.09.2020 15:58 14,8 C 18,3 C 14,4 C 70 % 996,6 hPa 0,0 l/m 2 min 0 min 575 W/m 29,0 km/h (5 Bft) 97,87 %
25.09.2020 16:00 14,8 C 18,9 C 14,4 C 70 % 996,5 hPa 0,0 l/m 2 min 0 min 601 W/m 25,7 km/h (4 Bft) 97,87 %
25.09.2020 16:02 14,9 C 18,9 C 14,4 C 70 % 996,6 hPa 0,0 l/m 2 min 0 min 556 W/m 32,2 km/h (5 Bft) 97,83 %
25.09.2020 16:04 15,1 C 18,3 C 15,0 C 70 % 996,6 hPa 0,0 l/m 2 min 0 min 552 W/m 19,3 km/h (3 Bft) 97,87 %
25.09.2020 16:06 15,1 C 15,6 C 14,4 C 69 % 996,7 hPa 0,0 l/m 2 min 0 min 485 W/m 22,5 km/h (4 Bft) 95,74 %
25.09.2020 16:08 15,1 C 14,4 C 13,9 C 68 % 996,6 hPa 0,0 l/m 0 min 0 min 69 W/m 29,0 km/h (5 Bft) 87,23 %
25.09.2020 16:10 15,1 C 14,4 C 13,9 C 69 % 996,5 hPa 0,0 l/m 0 min 0 min 70 W/m 22,5 km/h (4 Bft) 63,04 %
25.09.2020 16:12 15,1 C 13,9 C 13,3 C 69 % 996,5 hPa 0,0 l/m 0 min 0 min 75 W/m 29,0 km/h (5 Bft) 91,49 %
25.09.2020 16:14 15,0 C 13,9 C 13,3 C 69 % 996,5 hPa 0,0 l/m 0 min 0 min 80 W/m 32,2 km/h (5 Bft) 95,65 %
25.09.2020 16:16 14,9 C 13,9 C 13,3 C 69 % 996,5 hPa 0,0 l/m 0 min 0 min 88 W/m 19,3 km/h (3 Bft) 97,87 %
25.09.2020 16:18 14,8 C 13,9 C 13,3 C 70 % 996,5 hPa 0,0 l/m 0 min 0 min 93 W/m 19,3 km/h (3 Bft) 95,74 %
25.09.2020 16:20 14,8 C 14,4 C 13,3 C 70 % 996,5 hPa 0,0 l/m 0 min 0 min 122 W/m 16,1 km/h (3 Bft) 97,87 %
25.09.2020 16:22 14,8 C 14,4 C 13,3 C 71 % 996,5 hPa 0,0 l/m 0 min 0 min 164 W/m 12,9 km/h (3 Bft) 97,87 %
25.09.2020 16:24 14,7 C 14,4 C 13,9 C 71 % 996,5 hPa 0,0 l/m 0 min 0 min 192 W/m 32,2 km/h (5 Bft) 95,74 %
25.09.2020 16:26 14,7 C 15,0 C 13,9 C 71 % 996,5 hPa 0,0 l/m 0 min 0 min 200 W/m 16,1 km/h (3 Bft) 95,65 %
25.09.2020 16:28 14,7 C 15,0 C 13,9 C 71 % 996,4 hPa 0,0 l/m 0 min 0 min 165 W/m 16,1 km/h (3 Bft) 97,87 %
25.09.2020 16:30 14,7 C 15,0 C 13,9 C 71 % 996,4 hPa 0,0 l/m 0 min 0 min 144 W/m 16,1 km/h (3 Bft) 97,87 %
25.09.2020 16:32 14,7 C 15,0 C 13,9 C 72 % 996,4 hPa 0,0 l/m 0 min 0 min 147 W/m 12,9 km/h (3 Bft) 97,87 %
25.09.2020 16:34 14,7 C 14,4 C 13,9 C 72 % 996,5 hPa 0,0 l/m 0 min 0 min 161 W/m 22,5 km/h (4 Bft) 95,74 %
25.09.2020 16:36 14,7 C 14,4 C 13,9 C 71 % 996,5 hPa 0,0 l/m 0 min 0 min 158 W/m 29,0 km/h (5 Bft) 97,87 %
25.09.2020 16:38 14,6 C 14,4 C 13,3 C 69 % 996,7 hPa 0,0 l/m 0 min 0 min 156 W/m 22,5 km/h (4 Bft) 97,83 %
25.09.2020 16:40 14,6 C 14,4 C 13,3 C 69 % 996,4 hPa 0,0 l/m 0 min 0 min 150 W/m 19,3 km/h (3 Bft) 97,87 %
25.09.2020 16:42 14,6 C 15,0 C 14,4 C 69 % 996,4 hPa 0,0 l/m 0 min 0 min 142 W/m 19,3 km/h (3 Bft) 97,87 %
25.09.2020 16:44 14,6 C 16,7 C 16,1 C 70 % 996,3 hPa 0,0 l/m 2 min 0 min 410 W/m 29,0 km/h (5 Bft) 97,87 %
25.09.2020 16:46 14,6 C 17,8 C 17,8 C 70 % 996,4 hPa 0,0 l/m 2 min 0 min 508 W/m 22,5 km/h (4 Bft) 97,87 %
25.09.2020 16:48 14,7 C 18,3 C 19,4 C 70 % 996,3 hPa 0,0 l/m 2 min 0 min 476 W/m 19,3 km/h (3 Bft) 97,83 %
25.09.2020 16:50 14,8 C 18,9 C 19,4 C 70 % 996,4 hPa 0,0 l/m 2 min 0 min 442 W/m 25,7 km/h (4 Bft) 97,87 %
25.09.2020 16:52 14,8 C 17,8 C 17,8 C 69 % 996,5 hPa 0,0 l/m 2 min 0 min 422 W/m 35,4 km/h (5 Bft) 100,00 %
25.09.2020 16:54 14,9 C 18,3 C 16,7 C 69 % 996,5 hPa 0,0 l/m 2 min 0 min 413 W/m 19,3 km/h (3 Bft) 97,87 %
25.09.2020 16:56 15,1 C 17,2 C 15,6 C 69 % 996,5 hPa 0,0 l/m 2 min 0 min 408 W/m 29,0 km/h (5 Bft) 97,87 %
25.09.2020 16:58 15,1 C 17,2 C 15,6 C 69 % 996,6 hPa 0,0 l/m 2 min 0 min 409 W/m 38,6 km/h (5 Bft) 100,00 %
25.09.2020 17:00 15,2 C 16,7 C 15,0 C 69 % 996,5 hPa 0,0 l/m 2 min 0 min 410 W/m 25,7 km/h (4 Bft) 100,00 %
25.09.2020 17:02 15,2 C 16,7 C 14,4 C 68 % 996,6 hPa 0,0 l/m 2 min 0 min 406 W/m 38,6 km/h (5 Bft) 100,00 %
25.09.2020 17:04 15,2 C 17,2 C 14,4 C 68 % 996,6 hPa 0,0 l/m 2 min 0 min 396 W/m 29,0 km/h (5 Bft) 100,00 %
25.09.2020 17:06 15,2 C 16,1 C 13,9 C 68 % 996,6 hPa 0,0 l/m 2 min 0 min 389 W/m 25,7 km/h (4 Bft) 97,87 %
25.09.2020 17:08 15,2 C 16,7 C 13,9 C 68 % 996,6 hPa 0,0 l/m 2 min 0 min 380 W/m 38,6 km/h (5 Bft) 100,00 %
25.09.2020 17:10 15,2 C 16,7 C 13,9 C 68 % 996,5 hPa 0,0 l/m 2 min 0 min 359 W/m 41,8 km/h (6 Bft) 95,74 %
25.09.2020 17:12 15,2 C 17,2 C 13,9 C 68 % 996,5 hPa 0,0 l/m 2 min 0 min 352 W/m 35,4 km/h (5 Bft) 97,83 %
25.09.2020 17:14 15,2 C 16,7 C 13,9 C 68 % 996,4 hPa 0,0 l/m 2 min 0 min 345 W/m 48,3 km/h (6 Bft) 97,87 %
25.09.2020 17:16 15,2 C 16,7 C 13,9 C 67 % 996,4 hPa 0,0 l/m 2 min 0 min 338 W/m 41,8 km/h (6 Bft) 97,87 %
25.09.2020 17:18 15,2 C 16,7 C 13,9 C 67 % 996,5 hPa 0,0 l/m 2 min 0 min 334 W/m 19,3 km/h (3 Bft) 97,87 %
25.09.2020 17:20 15,1 C 16,7 C 13,3 C 67 % 996,6 hPa 0,0 l/m 2 min 0 min 329 W/m 32,2 km/h (5 Bft) 97,87 %
25.09.2020 17:22 15,1 C 16,1 C 13,3 C 68 % 996,5 hPa 0,0 l/m 2 min 0 min 315 W/m 32,2 km/h (5 Bft) 95,74 %
25.09.2020 17:24 15,1 C 15,0 C 13,3 C 68 % 996,5 hPa 0,0 l/m 2 min 0 min 206 W/m 22,5 km/h (4 Bft) 97,83 %
25.09.2020 17:26 15,1 C 14,4 C 12,8 C 68 % 996,5 hPa 0,0 l/m 2 min 0 min 191 W/m 25,7 km/h (4 Bft) 100,00 %
25.09.2020 17:28 14,9 C 13,9 C 12,8 C 69 % 996,7 hPa 0,0 l/m 0 min 0 min 63 W/m 35,4 km/h (5 Bft) 100,00 %
25.09.2020 17:30 14,8 C 13,3 C 12,8 C 69 % 996,6 hPa 0,0 l/m 0 min 0 min 73 W/m 25,7 km/h (4 Bft) 97,87 %
25.09.2020 17:32 14,8 C 13,9 C 12,8 C 69 % 996,5 hPa 0,0 l/m 0 min 0 min 90 W/m 19,3 km/h (3 Bft) 97,87 %
25.09.2020 17:34 14,7 C 15,6 C 12,8 C 69 % 996,6 hPa 0,0 l/m 2 min 0 min 201 W/m 16,1 km/h (3 Bft) 97,83 %
25.09.2020 17:36 14,7 C 16,7 C 13,3 C 70 % 996,6 hPa 0,0 l/m 2 min 0 min 367 W/m 16,1 km/h (3 Bft) 95,74 %
25.09.2020 17:38 14,7 C 15,6 C 13,3 C 70 % 996,7 hPa 0,0 l/m 2 min 0 min 361 W/m 19,3 km/h (3 Bft) 97,87 %
25.09.2020 17:40 14,7 C 14,4 C 13,3 C 70 % 996,9 hPa 0,0 l/m 0 min 0 min 95 W/m 35,4 km/h (5 Bft) 97,87 %
25.09.2020 17:42 14,6 C 13,9 C 13,3 C 70 % 996,8 hPa 0,0 l/m 0 min 0 min 79 W/m 32,2 km/h (5 Bft) 97,87 %
25.09.2020 17:44 14,5 C 13,3 C 12,8 C 71 % 996,9 hPa 0,0 l/m 0 min 0 min 64 W/m 32,2 km/h (5 Bft) 97,87 %
25.09.2020 17:46 14,3 C 13,3 C 12,8 C 72 % 996,9 hPa 0,0 l/m 0 min 0 min 67 W/m 32,2 km/h (5 Bft) 97,83 %
25.09.2020 17:48 14,3 C 13,3 C 12,8 C 72 % 996,9 hPa 0,0 l/m 0 min 0 min 85 W/m 25,7 km/h (4 Bft) 97,87 %
25.09.2020 17:50 14,3 C 13,3 C 12,8 C 73 % 997,0 hPa 0,0 l/m 0 min 0 min 92 W/m 19,3 km/h (3 Bft) 97,87 %
25.09.2020 17:52 14,2 C 12,8 C 12,8 C 74 % 996,8 hPa 0,0 l/m 0 min 0 min 78 W/m 35,4 km/h (5 Bft) 97,87 %
25.09.2020 17:54 14,1 C 12,8 C 12,2 C 75 % 997,0 hPa 0,0 l/m 0 min 0 min 54 W/m 22,5 km/h (4 Bft) 97,87 %
25.09.2020 17:56 14,1 C 12,8 C 12,2 C 76 % 996,9 hPa 0,0 l/m 0 min 0 min 39 W/m 22,5 km/h (4 Bft) 97,87 %
25.09.2020 17:58 13,9 C 12,2 C 12,2 C 76 % 997,0 hPa 0,0 l/m 0 min 0 min 39 W/m 22,5 km/h (4 Bft) 97,83 %
25.09.2020 18:00 13,8 C 12,2 C 12,2 C 75 % 996,9 hPa 0,0 l/m 0 min 0 min 40 W/m 19,3 km/h (3 Bft) 97,87 %
25.09.2020 18:02 13,7 C 12,2 C 12,2 C 75 % 997,0 hPa 0,0 l/m 0 min 0 min 47 W/m 32,2 km/h (5 Bft) 95,74 %
25.09.2020 18:04 13,6 C 12,2 C 12,2 C 75 % 996,8 hPa 0,0 l/m 0 min 0 min 52 W/m 19,3 km/h (3 Bft) 95,74 %
25.09.2020 18:08 13,3 C 12,2 C 12,2 C 76 % 996,7 hPa 0,0 l/m 0 min 0 min 64 W/m 22,5 km/h (4 Bft) 98,02 %
25.09.2020 18:10 13,3 C 12,2 C 12,2 C 76 % 996,7 hPa 0,0 l/m 0 min 0 min 71 W/m 6,4 km/h (2 Bft) 95,74 %
25.09.2020 18:12 13,3 C 12,2 C 11,7 C 76 % 996,6 hPa 0,0 l/m 0 min 0 min 70 W/m 19,3 km/h (3 Bft) 95,74 %
25.09.2020 18:14 13,2 C 12,2 C 11,7 C 77 % 996,6 hPa 0,0 l/m 0 min 0 min 61 W/m 12,9 km/h (3 Bft) 95,74 %
25.09.2020 18:16 13,2 C 12,2 C 11,7 C 77 % 996,5 hPa 0,0 l/m 0 min 0 min 54 W/m 12,9 km/h (3 Bft) 93,62 %
25.09.2020 18:18 13,2 C 12,2 C 11,7 C 77 % 996,6 hPa 0,0 l/m 0 min 0 min 46 W/m 22,5 km/h (4 Bft) 95,65 %
25.09.2020 18:20 13,1 C 11,7 C 11,7 C 77 % 996,5 hPa 0,0 l/m 0 min 0 min 37 W/m 19,3 km/h (3 Bft) 97,87 %
25.09.2020 18:22 13,0 C 11,7 C 11,7 C 77 % 996,6 hPa 0,0 l/m 0 min 0 min 32 W/m 25,7 km/h (4 Bft) 95,74 %
25.09.2020 18:24 12,9 C 11,7 C 11,7 C 78 % 996,7 hPa 0,0 l/m 0 min 0 min 32 W/m 19,3 km/h (3 Bft) 95,74 %
25.09.2020 18:26 12,8 C 11,7 C 11,7 C 78 % 996,8 hPa 0,0 l/m 0 min 0 min 31 W/m 16,1 km/h (3 Bft) 95,74 %
25.09.2020 18:28 12,8 C 11,1 C 11,1 C 78 % 996,7 hPa 0,0 l/m 0 min 0 min 26 W/m 25,7 km/h (4 Bft) 97,87 %
25.09.2020 18:30 12,7 C 11,1 C 11,1 C 78 % 996,7 hPa 0,0 l/m 0 min 0 min 22 W/m 12,9 km/h (3 Bft) 97,83 %
25.09.2020 18:32 12,7 C 11,1 C 11,1 C 78 % 996,7 hPa 0,0 l/m 0 min 0 min 22 W/m 25,7 km/h (4 Bft) 97,87 %
25.09.2020 18:34 12,6 C 11,1 C 11,1 C 78 % 996,8 hPa 0,0 l/m 0 min 0 min 26 W/m 25,7 km/h (4 Bft) 97,87 %
25.09.2020 18:36 12,5 C 11,1 C 11,1 C 78 % 996,7 hPa 0,0 l/m 0 min 0 min 27 W/m 16,1 km/h (3 Bft) 97,87 %
25.09.2020 18:38 12,4 C 11,1 C 11,1 C 79 % 996,8 hPa 0,0 l/m 0 min 0 min 31 W/m 25,7 km/h (4 Bft) 95,74 %
25.09.2020 18:40 12,3 C 11,1 C 11,1 C 79 % 996,8 hPa 0,0 l/m 0 min 0 min 34 W/m 12,9 km/h (3 Bft) 97,83 %
25.09.2020 18:42 12,3 C 11,1 C 11,1 C 79 % 996,8 hPa 0,0 l/m 0 min 0 min 34 W/m 16,1 km/h (3 Bft) 97,87 %
25.09.2020 18:44 12,2 C 11,1 C 11,1 C 79 % 996,8 hPa 0,0 l/m 0 min 0 min 30 W/m 9,7 km/h (2 Bft) 97,87 %
25.09.2020 18:46 12,2 C 11,1 C 11,1 C 80 % 996,8 hPa 0,0 l/m 0 min 0 min 25 W/m 12,9 km/h (3 Bft) 97,87 %
25.09.2020 18:48 12,2 C 11,1 C 11,1 C 80 % 996,8 hPa 0,0 l/m 0 min 0 min 23 W/m 12,9 km/h (3 Bft) 100,00 %
25.09.2020 18:50 12,1 C 11,1 C 11,1 C 80 % 996,7 hPa 0,0 l/m 0 min 0 min 21 W/m 19,3 km/h (3 Bft) 93,62 %
25.09.2020 18:52 12,1 C 11,1 C 11,1 C 80 % 996,9 hPa 0,0 l/m 0 min 0 min 20 W/m 35,4 km/h (5 Bft) 95,65 %
25.09.2020 18:54 12,1 C 11,1 C 11,1 C 80 % 996,8 hPa 0,0 l/m 0 min 0 min 19 W/m 25,7 km/h (4 Bft) 95,74 %
25.09.2020 18:56 12,0 C 11,1 C 11,1 C 80 % 996,7 hPa 0,0 l/m 0 min 0 min 17 W/m 22,5 km/h (4 Bft) 91,49 %
25.09.2020 18:58 12,0 C 11,1 C 11,1 C 80 % 996,8 hPa 0,0 l/m 0 min 0 min 14 W/m 22,5 km/h (4 Bft) 92,31 %
25.09.2020 19:00 11,9 C 10,6 C 10,6 C 80 % 996,7 hPa 0,0 l/m 0 min 0 min 12 W/m 19,3 km/h (3 Bft) 93,62 %
25.09.2020 19:02 11,9 C 10,6 C 10,6 C 80 % 996,9 hPa 0,0 l/m 0 min 0 min 12 W/m 22,5 km/h (4 Bft) 89,36 %
25.09.2020 19:04 11,8 C 10,6 C 10,6 C 81 % 996,8 hPa 0,0 l/m 0 min 0 min 11 W/m 9,7 km/h (2 Bft) 93,62 %
25.09.2020 19:06 11,8 C 10,6 C 10,6 C 81 % 996,8 hPa 0,0 l/m 0 min 0 min 11 W/m 16,1 km/h (3 Bft) 95,74 %
25.09.2020 19:08 11,8 C 10,6 C 10,6 C 81 % 996,8 hPa 0,0 l/m 0 min 0 min 9 W/m 25,7 km/h (4 Bft) 95,65 %
25.09.2020 19:10 11,8 C 10,6 C 10,6 C 81 % 996,9 hPa 0,0 l/m 0 min 0 min 9 W/m 19,3 km/h (3 Bft) 93,62 %
25.09.2020 19:12 11,7 C 10,6 C 10,6 C 81 % 996,8 hPa 0,0 l/m 0 min 0 min 8 W/m 22,5 km/h (4 Bft) 91,49 %
25.09.2020 19:14 11,7 C 10,6 C 10,6 C 81 % 996,8 hPa 0,0 l/m 0 min 0 min 7 W/m 22,5 km/h (4 Bft) 97,87 %
25.09.2020 19:16 11,6 C 10,6 C 10,6 C 82 % 996,7 hPa 0,0 l/m 0 min 0 min 7 W/m 6,4 km/h (2 Bft) 95,74 %
25.09.2020 19:18 11,6 C 10,6 C 10,6 C 82 % 996,6 hPa 0,0 l/m 0 min 0 min 6 W/m 19,3 km/h (3 Bft) 97,87 %
25.09.2020 19:20 11,6 C 10,6 C 10,6 C 82 % 996,7 hPa 0,0 l/m 0 min 0 min 5 W/m 19,3 km/h (3 Bft) 97,83 %
25.09.2020 19:22 11,5 C 10,0 C 10,6 C 82 % 996,6 hPa 0,0 l/m 0 min 0 min 5 W/m 22,5 km/h (4 Bft) 97,87 %
25.09.2020 19:24 11,5 C 10,6 C 10,6 C 82 % 996,7 hPa 0,0 l/m 0 min 0 min 0 W/m 12,9 km/h (3 Bft) 97,87 %
25.09.2020 19:26 11,4 C 10,0 C 10,6 C 82 % 996,6 hPa 0,0 l/m 0 min 0 min 0 W/m 12,9 km/h (3 Bft) 95,74 %
25.09.2020 19:28 11,4 C 10,0 C 10,6 C 83 % 996,6 hPa 0,0 l/m 0 min 0 min 0 W/m 25,7 km/h (4 Bft) 95,74 %
25.09.2020 19:30 11,4 C 10,6 C 10,6 C 83 % 996,7 hPa 0,0 l/m 0 min 0 min 0 W/m 22,5 km/h (4 Bft) 95,74 %
25.09.2020 19:32 11,4 C 10,6 C 10,6 C 83 % 996,6 hPa 0,0 l/m 0 min 0 min 0 W/m 16,1 km/h (3 Bft) 95,65 %
25.09.2020 19:34 11,3 C 10,6 C 10,6 C 83 % 996,5 hPa 0,0 l/m 0 min 0 min 0 W/m 25,7 km/h (4 Bft) 97,87 %
25.09.2020 19:36 11,3 C 10,6 C 10,6 C 83 % 996,5 hPa 0,0 l/m 0 min 0 min 0 W/m 22,5 km/h (4 Bft) 95,74 %
25.09.2020 19:38 11,3 C 10,6 C 10,0 C 83 % 996,7 hPa 0,0 l/m 0 min 0 min 0 W/m 29,0 km/h (5 Bft) 97,87 %
25.09.2020 19:40 11,3 C 10,6 C 10,0 C 84 % 996,6 hPa 0,0 l/m 0 min 0 min 0 W/m 22,5 km/h (4 Bft) 95,74 %
25.09.2020 19:42 11,3 C 10,6 C 10,0 C 84 % 996,7 hPa 0,0 l/m 0 min 0 min 0 W/m 22,5 km/h (4 Bft) 95,74 %
25.09.2020 19:44 11,3 C 10,6 C 10,0 C 84 % 996,6 hPa 0,0 l/m 0 min 0 min 0 W/m 19,3 km/h (3 Bft) 100,00 %
25.09.2020 19:46 11,3 C 10,0 C 10,0 C 84 % 996,6 hPa 0,0 l/m 0 min 0 min 0 W/m 16,1 km/h (3 Bft) 97,87 %
25.09.2020 19:48 11,3 C 10,0 C 10,0 C 85 % 996,6 hPa 0,0 l/m 0 min 0 min 0 W/m 22,5 km/h (4 Bft) 100,00 %
25.09.2020 19:50 11,3 C 10,0 C 10,0 C 85 % 996,6 hPa 0,0 l/m 0 min 0 min 0 W/m 25,7 km/h (4 Bft) 97,87 %
25.09.2020 19:52 11,2 C 10,0 C 10,0 C 85 % 996,5 hPa 0,0 l/m 0 min 0 min 0 W/m 19,3 km/h (3 Bft) 97,87 %
25.09.2020 19:54 11,2 C 10,0 C 10,0 C 85 % 996,6 hPa 0,0 l/m 0 min 0 min 0 W/m 19,3 km/h (3 Bft) 100,00 %
25.09.2020 19:56 11,2 C 10,6 C 10,0 C 85 % 996,6 hPa 0,0 l/m 0 min 0 min 0 W/m 22,5 km/h (4 Bft) 97,87 %
25.09.2020 19:58 11,2 C 10,6 C 10,0 C 85 % 996,6 hPa 0,0 l/m 0 min 0 min 0 W/m 16,1 km/h (3 Bft) 95,74 %
25.09.2020 20:00 11,2 C 10,6 C 10,0 C 85 % 996,6 hPa 0,0 l/m 0 min 0 min 0 W/m 16,1 km/h (3 Bft) 100,00 %
25.09.2020 20:02 11,2 C 10,6 C 10,0 C 85 % 996,6 hPa 0,0 l/m 0 min 0 min 0 W/m 19,3 km/h (3 Bft) 95,74 %
25.09.2020 20:04 11,2 C 10,6 C 10,0 C 86 % 996,7 hPa 0,0 l/m 0 min 0 min 0 W/m 16,1 km/h (3 Bft) 100,00 %
25.09.2020 20:06 11,2 C 10,6 C 10,0 C 86 % 996,5 hPa 0,0 l/m 0 min 0 min 0 W/m 22,5 km/h (4 Bft) 100,00 %
25.09.2020 20:08 11,2 C 10,6 C 10,0 C 86 % 996,5 hPa 0,0 l/m 0 min 0 min 0 W/m 32,2 km/h (5 Bft) 97,87 %
25.09.2020 20:10 11,2 C 10,6 C 10,0 C 86 % 996,5 hPa 0,0 l/m 0 min 0 min 0 W/m 16,1 km/h (3 Bft) 100,00 %
25.09.2020 20:12 11,2 C 10,6 C 10,0 C 86 % 996,6 hPa 0,0 l/m 0 min 0 min 0 W/m 25,7 km/h (4 Bft) 100,00 %
25.09.2020 20:14 11,2 C 10,6 C 10,0 C 86 % 996,5 hPa 0,0 l/m 0 min 0 min 0 W/m 12,9 km/h (3 Bft) 100,00 %
25.09.2020 20:16 11,2 C 10,6 C 10,0 C 86 % 996,4 hPa 0,0 l/m 0 min 0 min 0 W/m 22,5 km/h (4 Bft) 97,87 %
25.09.2020 20:18 11,2 C 10,6 C 10,0 C 86 % 996,5 hPa 0,0 l/m 0 min 0 min 0 W/m 22,5 km/h (4 Bft) 95,65 %
25.09.2020 20:20 11,2 C 10,6 C 10,0 C 86 % 996,4 hPa 0,0 l/m 0 min 0 min 0 W/m 22,5 km/h (4 Bft) 97,87 %
25.09.2020 20:22 11,2 C 10,6 C 10,0 C 86 % 996,4 hPa 0,0 l/m 0 min 0 min 0 W/m 25,7 km/h (4 Bft) 95,74 %
25.09.2020 20:24 11,2 C 10,6 C 10,0 C 87 % 996,4 hPa 0,0 l/m 0 min 0 min 0 W/m 22,5 km/h (4 Bft) 95,74 %
25.09.2020 20:26 11,2 C 10,6 C 10,0 C 87 % 996,5 hPa 0,0 l/m 0 min 0 min 0 W/m 29,0 km/h (5 Bft) 97,87 %
25.09.2020 20:28 11,2 C 10,6 C 10,0 C 86 % 996,4 hPa 0,0 l/m 0 min 0 min 0 W/m 19,3 km/h (3 Bft) 97,87 %
25.09.2020 20:30 11,1 C 10,6 C 10,0 C 87 % 996,4 hPa 0,0 l/m 0 min 0 min 0 W/m 25,7 km/h (4 Bft) 97,83 %
25.09.2020 20:32 11,1 C 10,0 C 10,0 C 87 % 996,4 hPa 0,0 l/m 0 min 0 min 0 W/m 16,1 km/h (3 Bft) 98,00 %
25.09.2020 20:34 11,1 C 10,6 C 10,0 C 87 % 996,4 hPa 0,0 l/m 0 min 0 min 0 W/m 41,8 km/h (6 Bft) 97,87 %
25.09.2020 20:36 11,1 C 10,6 C 10,0 C 87 % 996,3 hPa 0,0 l/m 0 min 0 min 0 W/m 25,7 km/h (4 Bft) 97,87 %
25.09.2020 20:38 11,1 C 10,6 C 10,0 C 87 % 996,3 hPa 0,0 l/m 0 min 0 min 0 W/m 19,3 km/h (3 Bft) 97,87 %
25.09.2020 20:40 11,1 C 10,6 C 10,0 C 87 % 996,3 hPa 0,0 l/m 0 min 0 min 0 W/m 29,0 km/h (5 Bft) 97,83 %
25.09.2020 20:42 11,1 C 10,6 C 10,0 C 87 % 996,4 hPa 0,0 l/m 0 min 0 min 0 W/m 16,1 km/h (3 Bft) 97,87 %
25.09.2020 20:44 11,1 C 10,6 C 10,0 C 87 % 996,3 hPa 0,0 l/m 0 min 0 min 0 W/m 19,3 km/h (3 Bft) 97,87 %
25.09.2020 20:46 11,1 C 10,0 C 10,0 C 87 % 996,3 hPa 0,0 l/m 0 min 0 min 0 W/m 19,3 km/h (3 Bft) 97,87 %
25.09.2020 20:48 11,1 C 10,0 C 10,0 C 87 % 996,3 hPa 0,0 l/m 0 min 0 min 0 W/m 32,2 km/h (5 Bft) 95,74 %
25.09.2020 20:50 11,1 C 10,0 C 10,0 C 87 % 996,3 hPa 0,0 l/m 0 min 0 min 0 W/m 22,5 km/h (4 Bft) 97,87 %
25.09.2020 20:52 11,1 C 10,0 C 10,0 C 87 % 996,3 hPa 0,0 l/m 0 min 0 min 0 W/m 16,1 km/h (3 Bft) 97,83 %
25.09.2020 20:54 11,1 C 10,0 C 10,0 C 87 % 996,3 hPa 0,0 l/m 0 min 0 min 0 W/m 22,5 km/h (4 Bft) 97,87 %
25.09.2020 20:56 11,1 C 10,6 C 10,0 C 87 % 996,3 hPa 0,0 l/m 0 min 0 min 0 W/m 22,5 km/h (4 Bft) 97,87 %
25.09.2020 20:58 11,1 C 10,6 C 10,0 C 87 % 996,3 hPa 0,0 l/m 0 min 0 min 0 W/m 19,3 km/h (3 Bft) 97,87 %
25.09.2020 21:00 11,1 C 10,6 C 10,0 C 87 % 996,2 hPa 0,0 l/m 0 min 0 min 0 W/m 35,4 km/h (5 Bft) 97,87 %
25.09.2020 21:02 11,0 C 10,6 C 10,0 C 87 % 996,2 hPa 0,0 l/m 0 min 0 min 0 W/m 22,5 km/h (4 Bft) 100,00 %
25.09.2020 21:04 11,1 C 10,6 C 10,0 C 87 % 996,3 hPa 0,0 l/m 0 min 0 min 0 W/m 22,5 km/h (4 Bft) 100,00 %
25.09.2020 21:06 11,1 C 10,6 C 10,0 C 87 % 996,4 hPa 0,0 l/m 0 min 0 min 0 W/m 16,1 km/h (3 Bft) 100,00 %
25.09.2020 21:08 11,1 C 10,6 C 10,0 C 87 % 996,3 hPa 0,0 l/m 0 min 0 min 0 W/m 29,0 km/h (5 Bft) 100,00 %
25.09.2020 21:10 11,1 C 10,6 C 10,0 C 87 % 996,3 hPa 0,0 l/m 0 min 0 min 0 W/m 16,1 km/h (3 Bft) 100,00 %
25.09.2020 21:12 11,1 C 10,6 C 10,0 C 87 % 996,2 hPa 0,0 l/m 0 min 0 min 0 W/m 22,5 km/h (4 Bft) 95,74 %
25.09.2020 21:14 11,1 C 10,6 C 10,0 C 87 % 996,1 hPa 0,0 l/m 0 min 0 min 0 W/m 16,1 km/h (3 Bft) 100,00 %
25.09.2020 21:16 11,1 C 10,6 C 10,0 C 87 % 996,2 hPa 0,0 l/m 0 min 0 min 0 W/m 25,7 km/h (4 Bft) 100,00 %
25.09.2020 21:18 11,1 C 10,6 C 10,0 C 87 % 996,2 hPa 0,0 l/m 0 min 0 min 0 W/m 12,9 km/h (3 Bft) 100,00 %
25.09.2020 21:20 11,1 C 10,6 C 10,0 C 87 % 996,2 hPa 0,0 l/m 0 min 0 min 0 W/m 12,9 km/h (3 Bft) 100,00 %
25.09.2020 21:22 11,1 C 10,6 C 10,0 C 87 % 996,2 hPa 0,0 l/m 0 min 0 min 0 W/m 16,1 km/h (3 Bft) 100,00 %
25.09.2020 21:24 11,1 C 10,6 C 10,0 C 87 % 996,2 hPa 0,0 l/m 0 min 0 min 0 W/m 38,6 km/h (5 Bft) 100,00 %
25.09.2020 21:26 11,1 C 10,6 C 10,6 C 87 % 996,2 hPa 0,0 l/m 0 min 0 min 0 W/m 19,3 km/h (3 Bft) 97,83 %
25.09.2020 21:28 11,1 C 10,6 C 10,6 C 86 % 996,1 hPa 0,0 l/m 0 min 0 min 0 W/m 16,1 km/h (3 Bft) 100,00 %
25.09.2020 21:30 11,1 C 10,6 C 10,6 C 86 % 996,1 hPa 0,0 l/m 0 min 0 min 0 W/m 16,1 km/h (3 Bft) 100,00 %
25.09.2020 21:32 11,1 C 10,6 C 10,6 C 86 % 996,1 hPa 0,0 l/m 0 min 0 min 0 W/m 22,5 km/h (4 Bft) 100,00 %
25.09.2020 21:34 11,1 C 10,6 C 10,6 C 86 % 996,1 hPa 0,0 l/m 0 min 0 min 0 W/m 25,7 km/h (4 Bft) 97,87 %
25.09.2020 21:36 11,1 C 10,6 C 10,0 C 86 % 996,0 hPa 0,0 l/m 0 min 0 min 0 W/m 19,3 km/h (3 Bft) 97,87 %
25.09.2020 21:38 11,1 C 10,0 C 10,0 C 86 % 996,0 hPa 0,0 l/m 0 min 0 min 0 W/m 29,0 km/h (5 Bft) 100,00 %
25.09.2020 21:40 11,1 C 9,4 C 10,0 C 86 % 996,0 hPa 0,0 l/m 0 min 0 min 0 W/m 19,3 km/h (3 Bft) 100,00 %
25.09.2020 21:42 11,1 C 9,4 C 10,0 C 86 % 996,1 hPa 0,0 l/m 0 min 0 min 0 W/m 16,1 km/h (3 Bft) 100,00 %
25.09.2020 21:44 11,1 C 8,9 C 10,0 C 86 % 996,0 hPa 0,0 l/m 0 min 2 min 0 W/m 29,0 km/h (5 Bft) 100,00 %
25.09.2020 21:46 11,1 C 8,9 C 9,4 C 87 % 996,0 hPa 0,0 l/m 0 min 2 min 0 W/m 22,5 km/h (4 Bft) 95,74 %
25.09.2020 21:48 11,1 C 8,9 C 9,4 C 87 % 996,1 hPa 0,0 l/m 0 min 2 min 0 W/m 25,7 km/h (4 Bft) 100,00 %
25.09.2020 21:50 11,1 C 8,3 C 9,4 C 87 % 996,1 hPa 0,0 l/m 0 min 2 min 0 W/m 25,7 km/h (4 Bft) 95,65 %
25.09.2020 21:52 11,0 C 8,3 C 9,4 C 87 % 996,1 hPa 0,0 l/m 0 min 2 min 0 W/m 25,7 km/h (4 Bft) 97,87 %
25.09.2020 21:54 11,0 C 8,3 C 9,4 C 88 % 996,3 hPa 0,0 l/m 0 min 2 min 0 W/m 32,2 km/h (5 Bft) 97,87 %
25.09.2020 21:56 10,9 C 8,3 C 9,4 C 88 % 996,1 hPa 0,0 l/m 0 min 2 min 0 W/m 22,5 km/h (4 Bft) 93,62 %
25.09.2020 21:58 10,9 C 8,3 C 9,4 C 88 % 996,1 hPa 0,0 l/m 0 min 0 min 0 W/m 19,3 km/h (3 Bft) 95,74 %
25.09.2020 22:00 10,8 C 8,3 C 8,9 C 88 % 996,0 hPa 0,0 l/m 0 min 2 min 0 W/m 32,2 km/h (5 Bft) 97,87 %
25.09.2020 22:02 10,8 C 8,3 C 8,9 C 89 % 995,9 hPa 0,0 l/m 0 min 2 min 0 W/m 19,3 km/h (3 Bft) 97,83 %
25.09.2020 22:04 10,8 C 8,3 C 8,9 C 89 % 996,0 hPa 0,0 l/m 0 min 0 min 0 W/m 22,5 km/h (4 Bft) 91,49 %
25.09.2020 22:06 10,7 C 8,3 C 8,9 C 89 % 995,9 hPa 0,0 l/m 0 min 2 min 0 W/m 25,7 km/h (4 Bft) 95,74 %
25.09.2020 22:08 10,7 C 8,3 C 8,9 C 89 % 995,9 hPa 0,2 l/m 0 min 2 min 0 W/m 22,5 km/h (4 Bft) 95,74 %
25.09.2020 22:10 10,6 C 8,3 C 8,9 C 89 % 995,9 hPa 0,0 l/m 0 min 2 min 0 W/m 32,2 km/h (5 Bft) 95,74 %
25.09.2020 22:12 10,6 C 8,3 C 8,9 C 90 % 995,8 hPa 0,0 l/m 0 min 2 min 0 W/m 29,0 km/h (5 Bft) 95,74 %
25.09.2020 22:14 10,6 C 8,3 C 8,9 C 90 % 995,9 hPa 0,0 l/m 0 min 2 min 0 W/m 32,2 km/h (5 Bft) 95,65 %
25.09.2020 22:16 10,5 C 8,3 C 8,9 C 90 % 995,7 hPa 0,0 l/m 0 min 2 min 0 W/m 19,3 km/h (3 Bft) 95,74 %
25.09.2020 22:18 10,5 C 8,3 C 8,9 C 90 % 995,7 hPa 0,0 l/m 0 min 2 min 0 W/m 16,1 km/h (3 Bft) 95,74 %
25.09.2020 22:20 10,4 C 8,3 C 8,9 C 91 % 995,7 hPa 0,2 l/m 0 min 2 min 0 W/m 9,7 km/h (2 Bft) 93,62 %
25.09.2020 22:22 10,4 C 8,3 C 8,9 C 91 % 995,7 hPa 0,0 l/m 0 min 0 min 0 W/m 12,9 km/h (3 Bft) 95,74 %
25.09.2020 22:24 10,4 C 8,3 C 8,9 C 91 % 995,8 hPa 0,0 l/m 0 min 2 min 0 W/m 19,3 km/h (3 Bft) 93,62 %
25.09.2020 22:26 10,3 C 8,3 C 8,9 C 91 % 995,8 hPa 0,0 l/m 0 min 0 min 0 W/m 6,4 km/h (2 Bft) 95,65 %
25.09.2020 22:28 10,3 C 8,3 C 8,9 C 91 % 995,7 hPa 0,0 l/m 0 min 0 min 0 W/m 6,4 km/h (2 Bft) 95,74 %
25.09.2020 22:30 10,3 C 8,3 C 8,9 C 91 % 995,8 hPa 0,0 l/m 0 min 0 min 0 W/m 12,9 km/h (3 Bft) 93,62 %
25.09.2020 22:32 10,3 C 8,3 C 8,9 C 91 % 995,8 hPa 0,0 l/m 0 min 2 min 0 W/m 19,3 km/h (3 Bft) 95,74 %
25.09.2020 22:34 10,3 C 8,3 C 8,9 C 92 % 995,8 hPa 0,0 l/m 0 min 2 min 0 W/m 19,3 km/h (3 Bft) 95,74 %
25.09.2020 22:36 10,3 C 8,3 C 8,9 C 92 % 995,8 hPa 0,2 l/m 0 min 2 min 0 W/m 29,0 km/h (5 Bft) 95,65 %
25.09.2020 22:38 10,3 C 8,3 C 8,9 C 92 % 995,8 hPa 0,0 l/m 0 min 0 min 0 W/m 25,7 km/h (4 Bft) 93,62 %
25.09.2020 22:40 10,2 C 8,3 C 8,9 C 92 % 995,8 hPa 0,0 l/m 0 min 0 min 0 W/m 32,2 km/h (5 Bft) 97,87 %
25.09.2020 22:42 10,2 C 8,3 C 8,9 C 92 % 995,7 hPa 0,0 l/m 0 min 0 min 0 W/m 19,3 km/h (3 Bft) 97,87 %
25.09.2020 22:44 10,2 C 8,3 C 8,9 C 92 % 995,7 hPa 0,0 l/m 0 min 0 min 0 W/m 29,0 km/h (5 Bft) 95,74 %
25.09.2020 22:46 10,2 C 8,3 C 8,9 C 92 % 995,8 hPa 0,0 l/m 0 min 0 min 0 W/m 22,5 km/h (4 Bft) 95,74 %
25.09.2020 22:48 10,1 C 8,3 C 8,9 C 93 % 995,7 hPa 0,0 l/m 0 min 0 min 0 W/m 16,1 km/h (3 Bft) 97,83 %
25.09.2020 22:50 10,1 C 8,3 C 8,9 C 93 % 995,8 hPa 0,0 l/m 0 min 0 min 0 W/m 19,3 km/h (3 Bft) 97,87 %
25.09.2020 22:52 10,1 C 8,3 C 8,9 C 93 % 995,7 hPa 0,0 l/m 0 min 0 min 0 W/m 19,3 km/h (3 Bft) 97,87 %
25.09.2020 22:54 10,1 C 8,3 C 8,9 C 93 % 995,7 hPa 0,0 l/m 0 min 0 min 0 W/m 25,7 km/h (4 Bft) 95,74 %
25.09.2020 22:56 10,1 C 8,3 C 8,9 C 93 % 995,7 hPa 0,0 l/m 0 min 0 min 0 W/m 25,7 km/h (4 Bft) 95,74 %
25.09.2020 22:58 10,1 C 8,3 C 8,9 C 93 % 995,7 hPa 0,0 l/m 0 min 0 min 0 W/m 16,1 km/h (3 Bft) 95,74 %
25.09.2020 23:00 10,1 C 8,3 C 8,9 C 93 % 995,7 hPa 0,0 l/m 0 min 0 min 0 W/m 25,7 km/h (4 Bft) 95,65 %
25.09.2020 23:02 10,1 C 8,3 C 8,9 C 93 % 995,7 hPa 0,0 l/m 0 min 0 min 0 W/m 19,3 km/h (3 Bft) 93,62 %
25.09.2020 23:04 10,1 C 8,3 C 8,9 C 94 % 995,7 hPa 0,0 l/m 0 min 0 min 0 W/m 19,3 km/h (3 Bft) 95,65 %
25.09.2020 23:06 10,1 C 8,3 C 8,9 C 94 % 995,6 hPa 0,0 l/m 0 min 0 min 0 W/m 25,7 km/h (4 Bft) 95,74 %
25.09.2020 23:08 10,1 C 8,9 C 8,9 C 94 % 995,6 hPa 0,0 l/m 0 min 0 min 0 W/m 22,5 km/h (4 Bft) 95,74 %
25.09.2020 23:10 10,1 C 8,9 C 8,9 C 94 % 995,6 hPa 0,0 l/m 0 min 0 min 0 W/m 22,5 km/h (4 Bft) 95,65 %
25.09.2020 23:12 10,1 C 8,9 C 8,9 C 94 % 995,5 hPa 0,0 l/m 0 min 0 min 0 W/m 16,1 km/h (3 Bft) 95,74 %
25.09.2020 23:14 10,1 C 8,9 C 8,9 C 94 % 995,5 hPa 0,0 l/m 0 min 0 min 0 W/m 22,5 km/h (4 Bft) 95,74 %
25.09.2020 23:16 10,0 C 8,9 C 8,9 C 94 % 995,5 hPa 0,0 l/m 0 min 0 min 0 W/m 29,0 km/h (5 Bft) 97,87 %
25.09.2020 23:18 10,1 C 8,9 C 8,9 C 94 % 995,4 hPa 0,0 l/m 0 min 0 min 0 W/m 12,9 km/h (3 Bft) 97,87 %
25.09.2020 23:20 10,0 C 8,9 C 8,9 C 94 % 995,5 hPa 0,0 l/m 0 min 0 min 0 W/m 16,1 km/h (3 Bft) 95,65 %
25.09.2020 23:22 10,1 C 8,9 C 8,9 C 94 % 995,4 hPa 0,0 l/m 0 min 0 min 0 W/m 12,9 km/h (3 Bft) 97,87 %
25.09.2020 23:24 10,1 C 8,9 C 8,9 C 94 % 995,4 hPa 0,0 l/m 0 min 0 min 0 W/m 16,1 km/h (3 Bft) 97,92 %
25.09.2020 23:26 10,1 C 8,9 C 8,9 C 94 % 995,4 hPa 0,0 l/m 0 min 0 min 0 W/m 25,7 km/h (4 Bft) 97,87 %
25.09.2020 23:28 10,1 C 8,9 C 8,9 C 94 % 995,4 hPa 0,0 l/m 0 min 0 min 0 W/m 19,3 km/h (3 Bft) 95,74 %
25.09.2020 23:30 10,1 C 8,9 C 8,9 C 94 % 995,4 hPa 0,0 l/m 0 min 0 min 0 W/m 19,3 km/h (3 Bft) 95,74 %
25.09.2020 23:32 10,1 C 8,9 C 8,9 C 94 % 995,3 hPa 0,0 l/m 0 min 0 min 0 W/m 16,1 km/h (3 Bft) 97,87 %
25.09.2020 23:34 10,0 C 8,9 C 8,9 C 94 % 995,3 hPa 0,0 l/m 0 min 0 min 0 W/m 25,7 km/h (4 Bft) 95,65 %
25.09.2020 23:36 10,0 C 8,9 C 8,9 C 94 % 995,4 hPa 0,0 l/m 0 min 0 min 0 W/m 22,5 km/h (4 Bft) 97,87 %
25.09.2020 23:38 10,0 C 8,9 C 8,9 C 94 % 995,3 hPa 0,0 l/m 0 min 0 min 0 W/m 22,5 km/h (4 Bft) 97,87 %
25.09.2020 23:40 10,1 C 8,9 C 8,9 C 94 % 995,3 hPa 0,0 l/m 0 min 0 min 0 W/m 32,2 km/h (5 Bft) 100,00 %
25.09.2020 23:42 10,0 C 8,9 C 8,9 C 94 % 995,4 hPa 0,0 l/m 0 min 0 min 0 W/m 19,3 km/h (3 Bft) 100,00 %
25.09.2020 23:44 10,1 C 8,9 C 8,9 C 94 % 995,3 hPa 0,0 l/m 0 min 0 min 0 W/m 22,5 km/h (4 Bft) 100,00 %
25.09.2020 23:46 10,1 C 8,9 C 8,9 C 94 % 995,3 hPa 0,0 l/m 0 min 0 min 0 W/m 22,5 km/h (4 Bft) 100,00 %
25.09.2020 23:48 10,1 C 8,9 C 8,9 C 94 % 995,3 hPa 0,0 l/m 0 min 2 min 0 W/m 16,1 km/h (3 Bft) 100,00 %
25.09.2020 23:50 10,1 C 8,9 C 8,9 C 94 % 995,4 hPa 0,0 l/m 0 min 2 min 0 W/m 19,3 km/h (3 Bft) 100,00 %
25.09.2020 23:52 10,1 C 8,3 C 8,9 C 94 % 995,3 hPa 0,0 l/m 0 min 2 min 0 W/m 19,3 km/h (3 Bft) 100,00 %
25.09.2020 23:54 10,1 C 8,3 C 8,9 C 94 % 995,3 hPa 0,2 l/m 0 min 2 min 0 W/m 19,3 km/h (3 Bft) 97,87 %
25.09.2020 23:56 10,1 C 8,3 C 8,9 C 94 % 995,2 hPa 0,0 l/m 0 min 2 min 0 W/m 22,5 km/h (4 Bft) 100,00 %
25.09.2020 23:58 10,1 C 8,3 C 8,9 C 94 % 995,1 hPa 0,0 l/m 0 min 0 min 0 W/m 16,1 km/h (3 Bft) 93,48 %
_ Min-Zeit 07:50 07:22 07:30 17:16 23:58 - - - - 00:14 08:26
Minimum _ 9,4 C 8,3 C 7,8 C 67 % 995,1 hPa - - - - 0,0 km/h (0 Bft) 53,19 %
_ Max-Zeit 13:02 12:46 16:48 03:10 11:02 01:14 11:30 01:12 13:10 01:14 00:34
Maximum _ 15,5 C 20,6 C 19,4 C 94 % 997,9 hPa 0,4 l/m 2 min 2 min 853 W/m 57,9 km/h
SO (7 Bft)
100,00 %
Durchschnitt _ 12,3 C 12,0 C 11,1 C 83 % 996,7 hPa #2,2 l/m #3:47 h #2:32 h 230 W/m 18,7 km/h (3 Bft) 97,30 %
© 2020 W. Hausmann